Observation data for Aiken on 01/20/2019      Previous  Date  Next       Current Mesonet Observations  Soil Data  Daily Summary Page  Observations in Plain Language
KAI1 200600Z 15005KT M04/M07 A3029 RMK A01 T10421074  RH  079%=      5-min Rain = 0
KAI1 200601Z 14005KT M04/M07 A3029 RMK A01 T10431073  RH  079%=      5-min Rain = 0
KAI1 200602Z 14006KT M04/M07 A3029 RMK A01 T10431073  RH  080%=      5-min Rain = 0
KAI1 200603Z 14005KT M04/M07 A3029 RMK A01 T10431072  RH  080%=      5-min Rain = 0
KAI1 200604Z 15005KT M04/M07 A3028 RMK A01 T10431073  RH  080%=      5-min Rain = 0
KAI1 200605Z 16005KT M04/M07 A3028 RMK A01 T10441074  RH  079%=      5-min Rain = 0
KAI1 200606Z 17005KT M04/M07 A3028 RMK A01 T10441074  RH  080%=      5-min Rain = 0
KAI1 200607Z 17005KT M04/M07 A3029 RMK A01 T10441073  RH  080%=      5-min Rain = 0
KAI1 200608Z 16006KT M04/M07 A3029 RMK A01 T10441072  RH  081%=      5-min Rain = 0
KAI1 200609Z 16006KT M04/M07 A303 RMK A01 T10421070  RH  081%=      5-min Rain = 0
KAI1 200610Z 15007KT M04/M07 A3029 RMK A01 T10411069  RH  080%=      5-min Rain = 0
KAI1 200611Z 16008KT M04/M07 A3029 RMK A01 T10411071  RH  080%=      5-min Rain = 0
KAI1 200612Z 16008KT M04/M07 A3029 RMK A01 T10411072  RH  079%=      5-min Rain = 0
KAI1 200613Z 16009KT M04/M07 A3029 RMK A01 T10411074  RH  078%=      5-min Rain = 0
KAI1 200614Z 15009KT M04/M08 A3029 RMK A01 T10431075  RH  078%=      5-min Rain = 0
KAI1 200615Z 16009KT M04/M07 A3029 RMK A01 T10431073  RH  080%=      5-min Rain = 0
KAI1 200616Z 16009KT M04/M07 A3029 RMK A01 T10431070  RH  081%=      5-min Rain = 0
KAI1 200617Z 16009KT M04/M07 A3029 RMK A01 T10421069  RH  081%=      5-min Rain = 0
KAI1 200618Z 15009KT M04/M07 A3028 RMK A01 T10411068  RH  081%=      5-min Rain = 0
KAI1 200619Z 16009KT M04/M07 A3028 RMK A01 T10411069  RH  081%=      5-min Rain = 0
KAI1 200620Z 15009KT M04/M07 A3028 RMK A01 T10411069  RH  081%=      5-min Rain = 0
KAI1 200621Z 15009KT M04/M07 A3028 RMK A01 T10411070  RH  080%=      5-min Rain = 0
KAI1 200622Z 15009KT M04/M07 A3028 RMK A01 T10411070  RH  080%=      5-min Rain = 0
KAI1 200623Z 16009KT M04/M07 A3028 RMK A01 T10411070  RH  080%=      5-min Rain = 0
KAI1 200624Z 16008KT M04/M07 A3029 RMK A01 T10411070  RH  080%=      5-min Rain = 0
KAI1 200625Z 16008KT M04/M07 A3029 RMK A01 T10411070  RH  080%=      5-min Rain = 0
KAI1 200626Z 15009KT M04/M07 A3029 RMK A01 T10411069  RH  081%=      5-min Rain = 0
KAI1 200627Z 15009KT M04/M07 A3029 RMK A01 T10411069  RH  081%=      5-min Rain = 0
KAI1 200628Z 15009KT M04/M07 A3029 RMK A01 T10411069  RH  081%=      5-min Rain = 0
KAI1 200629Z 15009KT M04/M07 A303 RMK A01 T10411069  RH  081%=      5-min Rain = 0
KAI1 200630Z 15009KT M04/M07 A3029 RMK A01 T10411069  RH  081%=      5-min Rain = 0
KAI1 200631Z 15009KT M04/M07 A3029 RMK A01 T10411069  RH  081%=      5-min Rain = 0
KAI1 200632Z 15008KT M04/M07 A3029 RMK A01 T10411068  RH  081%=      5-min Rain = 0
KAI1 200633Z 15008KT M04/M07 A3029 RMK A01 T10401067  RH  082%=      5-min Rain = 0
KAI1 200634Z 15008KT M04/M07 A3029 RMK A01 T10401066  RH  082%=      5-min Rain = 0
KAI1 200635Z 15008KT M04/M07 A3029 RMK A01 T10391067  RH  081%=      5-min Rain = 0
KAI1 200636Z 15008KT M04/M07 A3029 RMK A01 T10391067  RH  081%=      5-min Rain = 0
KAI1 200637Z 15008KT M04/M07 A3028 RMK A01 T10391067  RH  081%=      5-min Rain = 0
KAI1 200638Z 15008KT M04/M07 A3028 RMK A01 T10391068  RH  081%=      5-min Rain = 0
KAI1 200639Z 15008KT M04/M07 A3028 RMK A01 T10391067  RH  081%=      5-min Rain = 0
KAI1 200640Z 15008KT M04/M07 A3028 RMK A01 T10391067  RH  081%=      5-min Rain = 0
KAI1 200641Z 15008KT M04/M07 A3028 RMK A01 T10391067  RH  081%=      5-min Rain = 0
KAI1 200642Z 16009KT M04/M07 A3028 RMK A01 T10391066  RH  081%=      5-min Rain = 0
KAI1 200643Z 16009KT M04/M07 A3029 RMK A01 T10381066  RH  081%=      5-min Rain = 0
KAI1 200644Z 16009KT M04/M07 A3029 RMK A01 T10381066  RH  081%=      5-min Rain = 0
KAI1 200645Z 16009KT M04/M07 A3029 RMK A01 T10381066  RH  081%=      5-min Rain = 0
KAI1 200646Z 16008KT M04/M07 A3029 RMK A01 T10381066  RH  081%=      5-min Rain = 0
KAI1 200647Z 16009KT M04/M07 A3028 RMK A01 T10381066  RH  081%=      5-min Rain = 0
KAI1 200648Z 16010KT M04/M07 A3028 RMK A01 T10381066  RH  081%=      5-min Rain = 0
KAI1 200649Z 16010KT M04/M07 A3028 RMK A01 T10381065  RH  081%=      5-min Rain = 0
KAI1 200650Z 16010KT M04/M07 A3028 RMK A01 T10381065  RH  081%=      5-min Rain = 0
KAI1 200651Z 16008KT M04/M07 A3028 RMK A01 T10381065  RH  081%=      5-min Rain = 0
KAI1 200652Z 16008KT M04/M07 A3028 RMK A01 T10381066  RH  081%=      5-min Rain = 0
KAI1 200653Z 16007KT M04/M07 A3028 RMK A01 T10381065  RH  081%=      5-min Rain = 0
KAI1 200654Z 16007KT M04/M07 A3028 RMK A01 T10381065  RH  081%=      5-min Rain = 0
KAI1 200655Z 16008KT M04/M07 A3028 RMK A01 T10381066  RH  081%=      5-min Rain = 0
KAI1 200656Z 16008KT M04/M07 A3028 RMK A01 T10381066  RH  081%=      5-min Rain = 0
KAI1 200657Z 16009KT M04/M07 A3028 RMK A01 T10381066  RH  081%=      5-min Rain = 0
KAI1 200658Z 15009KT M04/M07 A3028 RMK A01 T10391067  RH  081%=      5-min Rain = 0
KAI1 200659Z 16009KT M04/M07 A3028 RMK A01 T10401067  RH  081%=      5-min Rain = 0
KAI1 200700Z 16008KT M04/M07 A3028 RMK A01 T10401067  RH  081%=      5-min Rain = 0
KAI1 200701Z 16008KT M04/M07 A3029 RMK A01 T10401067  RH  082%=      5-min Rain = 0
KAI1 200702Z 16007KT M04/M07 A3029 RMK A01 T10401067  RH  082%=      5-min Rain = 0
KAI1 200703Z 16008KT M04/M07 A3029 RMK A01 T10401066  RH  082%=      5-min Rain = 0
KAI1 200704Z 16008KT M04/M07 A3029 RMK A01 T10401067  RH  082%=      5-min Rain = 0
KAI1 200705Z 16008KT M04/M07 A3028 RMK A01 T10401067  RH  082%=      5-min Rain = 0
KAI1 200706Z 16008KT M04/M07 A3028 RMK A01 T10411067  RH  082%=      5-min Rain = 0
KAI1 200707Z 16007KT M04/M07 A3028 RMK A01 T10411067  RH  082%=      5-min Rain = 0
KAI1 200708Z 17007KT M04/M07 A3028 RMK A01 T10411067  RH  082%=      5-min Rain = 0
KAI1 200709Z 17007KT M04/M07 A3028 RMK A01 T10411067  RH  082%=      5-min Rain = 0
KAI1 200710Z 17007KT M04/M07 A3028 RMK A01 T10411067  RH  082%=      5-min Rain = 0
KAI1 200711Z 17007KT M04/M07 A3028 RMK A01 T10411066  RH  083%=      5-min Rain = 0
KAI1 200712Z 16007KT M04/M07 A3028 RMK A01 T10411066  RH  083%=      5-min Rain = 0
KAI1 200713Z 16007KT M04/M07 A3028 RMK A01 T10411066  RH  083%=      5-min Rain = 0
KAI1 200714Z 16007KT M04/M07 A3028 RMK A01 T10411067  RH  082%=      5-min Rain = 0
KAI1 200715Z 16007KT M04/M07 A3028 RMK A01 T10421068  RH  082%=      5-min Rain = 0
KAI1 200716Z 16007KT M04/M07 A3028 RMK A01 T10431069  RH  082%=      5-min Rain = 0
KAI1 200717Z 16007KT M04/M07 A3028 RMK A01 T10431069  RH  082%=      5-min Rain = 0
KAI1 200718Z 16007KT M04/M07 A3028 RMK A01 T10441069  RH  082%=      5-min Rain = 0
KAI1 200719Z 16006KT M04/M07 A3029 RMK A01 T10441070  RH  082%=      5-min Rain = 0
KAI1 200720Z 16006KT M04/M07 A3029 RMK A01 T10441070  RH  082%=      5-min Rain = 0
KAI1 200721Z 17006KT M05/M07 A3029 RMK A01 T10451070  RH  083%=      5-min Rain = 0
KAI1 200722Z 17005KT M05/M07 A3029 RMK A01 T10451069  RH  083%=      5-min Rain = 0
KAI1 200723Z 17005KT M04/M07 A3029 RMK A01 T10441068  RH  083%=      5-min Rain = 0
KAI1 200724Z 18005KT M04/M07 A3029 RMK A01 T10431067  RH  084%=      5-min Rain = 0
KAI1 200725Z 17005KT M04/M07 A3028 RMK A01 T10421065  RH  084%=      5-min Rain = 0
KAI1 200726Z 17006KT M04/M07 A3028 RMK A01 T10421065  RH  084%=      5-min Rain = 0
KAI1 200727Z 16006KT M04/M07 A3028 RMK A01 T10411065  RH  083%=      5-min Rain = 0
KAI1 200728Z 15007KT M04/M07 A3028 RMK A01 T10421067  RH  082%=      5-min Rain = 0
KAI1 200729Z 14008KT M04/M07 A3028 RMK A01 T10421069  RH  082%=      5-min Rain = 0
KAI1 200730Z 14008KT M04/M07 A3028 RMK A01 T10431070  RH  081%=      5-min Rain = 0
KAI1 200731Z 15008KT M04/M07 A3028 RMK A01 T10431070  RH  082%=      5-min Rain = 0
KAI1 200732Z 15007KT M04/M07 A3028 RMK A01 T10431068  RH  083%=      5-min Rain = 0
KAI1 200733Z 15006KT M04/M07 A3028 RMK A01 T10431067  RH  083%=      5-min Rain = 0
KAI1 200734Z 16006KT M04/M07 A3028 RMK A01 T10431066  RH  084%=      5-min Rain = 0
KAI1 200735Z 15005KT M04/M07 A3028 RMK A01 T10431066  RH  084%=      5-min Rain = 0
KAI1 200736Z 16004KT M04/M07 A3028 RMK A01 T10421066  RH  084%=      5-min Rain = 0
KAI1 200737Z 16004KT M04/M07 A3028 RMK A01 T10421066  RH  084%=      5-min Rain = 0
KAI1 200738Z 15005KT M04/M07 A3028 RMK A01 T10421066  RH  083%=      5-min Rain = 0
KAI1 200739Z 15005KT M04/M07 A3028 RMK A01 T10421067  RH  083%=      5-min Rain = 0
KAI1 200740Z 15006KT M04/M07 A3028 RMK A01 T10421067  RH  083%=      5-min Rain = 0
KAI1 200741Z 14007KT M04/M07 A3028 RMK A01 T10421067  RH  082%=      5-min Rain = 0
KAI1 200742Z 14007KT M04/M07 A3028 RMK A01 T10421068  RH  082%=      5-min Rain = 0
KAI1 200743Z 14007KT M04/M07 A3029 RMK A01 T10421069  RH  082%=      5-min Rain = 0
KAI1 200744Z 15007KT M04/M07 A3028 RMK A01 T10431069  RH  082%=      5-min Rain = 0
KAI1 200745Z 15006KT M04/M07 A3028 RMK A01 T10431068  RH  083%=      5-min Rain = 0
KAI1 200746Z 16006KT M04/M07 A3028 RMK A01 T10431068  RH  083%=      5-min Rain = 0
KAI1 200747Z 16006KT M04/M07 A3028 RMK A01 T10431067  RH  083%=      5-min Rain = 0
KAI1 200748Z 16006KT M04/M07 A3028 RMK A01 T10431067  RH  084%=      5-min Rain = 0
KAI1 200749Z 16006KT M04/M07 A3028 RMK A01 T10441067  RH  084%=      5-min Rain = 0
KAI1 200750Z 16006KT M04/M07 A3028 RMK A01 T10431067  RH  084%=      5-min Rain = 0
KAI1 200751Z 15007KT M04/M07 A3028 RMK A01 T10441068  RH  083%=      5-min Rain = 0
KAI1 200752Z 15007KT M04/M07 A3028 RMK A01 T10441069  RH  083%=      5-min Rain = 0
KAI1 200753Z 15007KT M04/M07 A3028 RMK A01 T10441068  RH  083%=      5-min Rain = 0
KAI1 200754Z 15007KT M04/M07 A3028 RMK A01 T10441069  RH  083%=      5-min Rain = 0
KAI1 200755Z 16008KT M04/M07 A3028 RMK A01 T10441068  RH  083%=      5-min Rain = 0
KAI1 200756Z 16008KT M04/M07 A3028 RMK A01 T10441068  RH  084%=      5-min Rain = 0
KAI1 200757Z 16008KT M04/M07 A3028 RMK A01 T10441067  RH  084%=      5-min Rain = 0
KAI1 200758Z 16008KT M04/M07 A3028 RMK A01 T10441067  RH  084%=      5-min Rain = 0
KAI1 200759Z 16008KT M04/M07 A3028 RMK A01 T10441067  RH  084%=      5-min Rain = 0
KAI1 200800Z 16007KT M04/M07 A3028 RMK A01 T10431067  RH  083%=      5-min Rain = 0
KAI1 200801Z 16007KT M04/M07 A3028 RMK A01 T10441068  RH  083%=      5-min Rain = 0
KAI1 200802Z 16008KT M04/M07 A3028 RMK A01 T10441068  RH  083%=      5-min Rain = 0
KAI1 200803Z 16008KT M04/M07 A3028 RMK A01 T10441068  RH  083%=      5-min Rain = 0
KAI1 200804Z 16008KT M05/M07 A3028 RMK A01 T10451069  RH  083%=      5-min Rain = 0
KAI1 200805Z 16007KT M05/M07 A3028 RMK A01 T10451069  RH  083%=      5-min Rain = 0
KAI1 200806Z 16007KT M05/M07 A3028 RMK A01 T10451070  RH  083%=      5-min Rain = 0
KAI1 200807Z 16007KT M05/M07 A3028 RMK A01 T10461070  RH  083%=      5-min Rain = 0
KAI1 200808Z 16006KT M05/M07 A3028 RMK A01 T10471071  RH  083%=      5-min Rain = 0
KAI1 200809Z 16006KT M05/M07 A3028 RMK A01 T10471072  RH  083%=      5-min Rain = 0
KAI1 200810Z 17006KT M05/M07 A3028 RMK A01 T10481071  RH  083%=      5-min Rain = 0
KAI1 200811Z 17006KT M05/M07 A3028 RMK A01 T10481072  RH  084%=      5-min Rain = 0
KAI1 200812Z 17007KT M05/M07 A3028 RMK A01 T10481071  RH  084%=      5-min Rain = 0
KAI1 200813Z 17006KT M05/M07 A3028 RMK A01 T10481071  RH  084%=      5-min Rain = 0
KAI1 200814Z 17006KT M05/M07 A3028 RMK A01 T10481072  RH  083%=      5-min Rain = 0
KAI1 200815Z 17006KT M05/M07 A3028 RMK A01 T10471072  RH  083%=      5-min Rain = 0
KAI1 200816Z 17006KT M05/M07 A3028 RMK A01 T10471072  RH  083%=      5-min Rain = 0
KAI1 200817Z 17006KT M05/M07 A3028 RMK A01 T10471072  RH  083%=      5-min Rain = 0
KAI1 200818Z 17006KT M05/M07 A3028 RMK A01 T10481073  RH  083%=      5-min Rain = 0
KAI1 200819Z 17006KT M05/M07 A3028 RMK A01 T10481073  RH  083%=      5-min Rain = 0
KAI1 200820Z 17006KT M05/M07 A3028 RMK A01 T10491073  RH  083%=      5-min Rain = 0
KAI1 200821Z 17006KT M05/M07 A3028 RMK A01 T10491073  RH  083%=      5-min Rain = 0
KAI1 200822Z 17006KT M05/M07 A3028 RMK A01 T10501073  RH  083%=      5-min Rain = 0
KAI1 200823Z 17006KT M05/M07 A3028 RMK A01 T10501073  RH  084%=      5-min Rain = 0
KAI1 200824Z 18006KT M05/M07 A3028 RMK A01 T10501073  RH  084%=      5-min Rain = 0
KAI1 200825Z 18006KT M05/M07 A3028 RMK A01 T10511073  RH  084%=      5-min Rain = 0
KAI1 200826Z 18005KT M05/M07 A3028 RMK A01 T10501072  RH  085%=      5-min Rain = 0
KAI1 200827Z 18006KT M05/M07 A3028 RMK A01 T10501071  RH  086%=      5-min Rain = 0
KAI1 200828Z 19006KT M05/M07 A3028 RMK A01 T10501070  RH  086%=      5-min Rain = 0
KAI1 200829Z 19006KT M05/M07 A3028 RMK A01 T10491069  RH  086%=      5-min Rain = 0
KAI1 200830Z 19006KT M05/M07 A3028 RMK A01 T10501070  RH  086%=      5-min Rain = 0
KAI1 200831Z 19007KT M05/M07 A3028 RMK A01 T10501071  RH  086%=      5-min Rain = 0
KAI1 200832Z 18007KT M05/M07 A3028 RMK A01 T10511071  RH  086%=      5-min Rain = 0
KAI1 200833Z 18006KT M05/M07 A3028 RMK A01 T10511071  RH  086%=      5-min Rain = 0
KAI1 200834Z 18006KT M05/M07 A3028 RMK A01 T10511070  RH  086%=      5-min Rain = 0
KAI1 200835Z 18005KT M05/M07 A3028 RMK A01 T10501069  RH  087%=      5-min Rain = 0
KAI1 200836Z 18004KT M05/M07 A3028 RMK A01 T10501069  RH  087%=      5-min Rain = 0
KAI1 200837Z 18005KT M05/M07 A3028 RMK A01 T10491068  RH  086%=      5-min Rain = 0
KAI1 200838Z 17005KT M05/M07 A3028 RMK A01 T10481069  RH  086%=      5-min Rain = 0
KAI1 200839Z 18005KT M05/M07 A3028 RMK A01 T10481069  RH  085%=      5-min Rain = 0
KAI1 200840Z 18005KT M05/M07 A3028 RMK A01 T10481070  RH  084%=      5-min Rain = 0
KAI1 200841Z 18006KT M05/M07 A3029 RMK A01 T10481071  RH  084%=      5-min Rain = 0
KAI1 200842Z 18006KT M05/M07 A3029 RMK A01 T10481072  RH  084%=      5-min Rain = 0
KAI1 200843Z 19006KT M05/M07 A3029 RMK A01 T10491072  RH  084%=      5-min Rain = 0
KAI1 200844Z 18006KT M05/M07 A3029 RMK A01 T10491071  RH  084%=      5-min Rain = 0
KAI1 200845Z 18006KT M05/M07 A3029 RMK A01 T10481070  RH  085%=      5-min Rain = 0
KAI1 200846Z 18006KT M05/M07 A3028 RMK A01 T10481070  RH  084%=      5-min Rain = 0
KAI1 200847Z 18005KT M05/M07 A3028 RMK A01 T10471069  RH  084%=      5-min Rain = 0
KAI1 200848Z 18006KT M05/M07 A3028 RMK A01 T10471069  RH  084%=      5-min Rain = 0
KAI1 200849Z 19006KT M05/M07 A3028 RMK A01 T10471070  RH  084%=      5-min Rain = 0
KAI1 200850Z 19006KT M05/M07 A3028 RMK A01 T10471070  RH  084%=      5-min Rain = 0
KAI1 200851Z 19006KT M05/M07 A3029 RMK A01 T10481070  RH  085%=      5-min Rain = 0
KAI1 200852Z 19006KT M05/M07 A3029 RMK A01 T10491070  RH  085%=      5-min Rain = 0
KAI1 200853Z 19006KT M05/M07 A3029 RMK A01 T10501070  RH  086%=      5-min Rain = 0
KAI1 200854Z 19006KT M05/M07 A3029 RMK A01 T10501070  RH  086%=      5-min Rain = 0
KAI1 200855Z 19005KT M05/M07 A3028 RMK A01 T10511070  RH  086%=      5-min Rain = 0
KAI1 200856Z 19005KT M05/M07 A3029 RMK A01 T10511070  RH  086%=      5-min Rain = 0
KAI1 200857Z 19005KT M05/M07 A3029 RMK A01 T10521071  RH  086%=      5-min Rain = 0
KAI1 200858Z 20005KT M05/M07 A3029 RMK A01 T10521071  RH  086%=      5-min Rain = 0
KAI1 200859Z 20004KT M05/M07 A3029 RMK A01 T10521072  RH  086%=      5-min Rain = 0
KAI1 200900Z 20004KT M05/M07 A3029 RMK A01 T10531073  RH  086%=      5-min Rain = 0
KAI1 200901Z 18004KT M06/M07 A3029 RMK A01 T10551074  RH  086%=      5-min Rain = 0
KAI1 200902Z 18004KT M06/M07 A3029 RMK A01 T10551074  RH  087%=      5-min Rain = 0
KAI1 200903Z 18005KT M06/M07 A3029 RMK A01 T10551073  RH  087%=      5-min Rain = 0
KAI1 200904Z 18005KT M06/M07 A3029 RMK A01 T10551073  RH  088%=      5-min Rain = 0
KAI1 200905Z 19004KT M06/M07 A3029 RMK A01 T10551073  RH  088%=      5-min Rain = 0
KAI1 200906Z 19004KT M06/M07 A3029 RMK A01 T10551073  RH  087%=      5-min Rain = 0
KAI1 200907Z 19004KT M05/M07 A3029 RMK A01 T10541073  RH  087%=      5-min Rain = 0
KAI1 200908Z 19004KT M06/M07 A3029 RMK A01 T10551073  RH  087%=      5-min Rain = 0
KAI1 200909Z 19005KT M06/M07 A3029 RMK A01 T10551073  RH  087%=      5-min Rain = 0
KAI1 200910Z 19005KT M05/M07 A3029 RMK A01 T10541073  RH  087%=      5-min Rain = 0
KAI1 200911Z 19005KT M06/M07 A3029 RMK A01 T10551073  RH  087%=      5-min Rain = 0
KAI1 200912Z 19005KT M06/M07 A3029 RMK A01 T10551074  RH  087%=      5-min Rain = 0
KAI1 200913Z 18005KT M06/M07 A3029 RMK A01 T10561074  RH  087%=      5-min Rain = 0
KAI1 200914Z 19006KT M06/M07 A3029 RMK A01 T10551074  RH  087%=      5-min Rain = 0
KAI1 200915Z 18005KT M06/M07 A3029 RMK A01 T10551074  RH  087%=      5-min Rain = 0
KAI1 200916Z 18005KT M06/M07 A3029 RMK A01 T10551074  RH  087%=      5-min Rain = 0
KAI1 200917Z 18006KT M06/M07 A3029 RMK A01 T10551074  RH  087%=      5-min Rain = 0
KAI1 200918Z 18005KT M06/M07 A3029 RMK A01 T10551074  RH  086%=      5-min Rain = 0
KAI1 200919Z 18005KT M06/M08 A3029 RMK A01 T10551075  RH  086%=      5-min Rain = 0
KAI1 200920Z 18005KT M06/M08 A3029 RMK A01 T10551075  RH  086%=      5-min Rain = 0
KAI1 200921Z 18005KT M06/M08 A3029 RMK A01 T10551076  RH  085%=      5-min Rain = 0
KAI1 200922Z 19005KT M06/M08 A3029 RMK A01 T10551076  RH  085%=      5-min Rain = 0
KAI1 200923Z 19005KT M06/M08 A3029 RMK A01 T10551076  RH  085%=      5-min Rain = 0
KAI1 200924Z 19005KT M06/M08 A3029 RMK A01 T10551076  RH  085%=      5-min Rain = 0
KAI1 200925Z 18005KT M06/M08 A3029 RMK A01 T10551076  RH  086%=      5-min Rain = 0
KAI1 200926Z 18005KT M06/M08 A3029 RMK A01 T10551076  RH  086%=      5-min Rain = 0
KAI1 200927Z 18005KT M06/M08 A3029 RMK A01 T10561076  RH  086%=      5-min Rain = 0
KAI1 200928Z 19004KT M06/M08 A3029 RMK A01 T10551076  RH  086%=      5-min Rain = 0
KAI1 200929Z 19004KT M06/M08 A3029 RMK A01 T10551076  RH  086%=      5-min Rain = 0
KAI1 200930Z 18004KT M06/M08 A3029 RMK A01 T10551076  RH  086%=      5-min Rain = 0
KAI1 200931Z 18004KT M06/M08 A3029 RMK A01 T10551076  RH  086%=      5-min Rain = 0
KAI1 200932Z 18003KT M06/M08 A3029 RMK A01 T10561077  RH  085%=      5-min Rain = 0
KAI1 200933Z 18003KT M06/M08 A3029 RMK A01 T10561077  RH  085%=      5-min Rain = 0
KAI1 200934Z 18003KT M06/M08 A3029 RMK A01 T10571078  RH  085%=      5-min Rain = 0
KAI1 200935Z 17003KT M06/M08 A3029 RMK A01 T10571079  RH  084%=      5-min Rain = 0
KAI1 200936Z 17003KT M06/M08 A3029 RMK A01 T10581080  RH  084%=      5-min Rain = 0
KAI1 200937Z 17003KT M06/M08 A3029 RMK A01 T10581081  RH  084%=      5-min Rain = 0
KAI1 200938Z 16003KT M06/M08 A3029 RMK A01 T10581080  RH  084%=      5-min Rain = 0
KAI1 200939Z 16003KT M06/M08 A3029 RMK A01 T10581080  RH  085%=      5-min Rain = 0
KAI1 200940Z 16004KT M06/M08 A3029 RMK A01 T10581080  RH  084%=      5-min Rain = 0
KAI1 200941Z 16004KT M06/M08 A3029 RMK A01 T10581081  RH  084%=      5-min Rain = 0
KAI1 200942Z 16004KT M06/M08 A3028 RMK A01 T10581081  RH  084%=      5-min Rain = 0
KAI1 200943Z 17004KT M06/M08 A3028 RMK A01 T10581081  RH  084%=      5-min Rain = 0
KAI1 200944Z 17004KT M06/M08 A3028 RMK A01 T10581081  RH  084%=      5-min Rain = 0
KAI1 200945Z 18004KT M06/M08 A3028 RMK A01 T10591081  RH  084%=      5-min Rain = 0
KAI1 200946Z 18004KT M06/M08 A3028 RMK A01 T10591081  RH  085%=      5-min Rain = 0
KAI1 200947Z 18004KT M06/M08 A3028 RMK A01 T10591081  RH  085%=      5-min Rain = 0
KAI1 200948Z 18005KT M06/M08 A3028 RMK A01 T10591081  RH  085%=      5-min Rain = 0
KAI1 200949Z 18005KT M06/M08 A3028 RMK A01 T10591081  RH  085%=      5-min Rain = 0
KAI1 200950Z 18005KT M06/M08 A3028 RMK A01 T10591080  RH  085%=      5-min Rain = 0
KAI1 200951Z 18005KT M06/M08 A3028 RMK A01 T10591081  RH  085%=      5-min Rain = 0
KAI1 200952Z 18005KT M06/M08 A3028 RMK A01 T10601082  RH  085%=      5-min Rain = 0
KAI1 200953Z 18005KT M06/M08 A3028 RMK A01 T10611083  RH  085%=      5-min Rain = 0
KAI1 200954Z 18005KT M06/M08 A3028 RMK A01 T10611083  RH  085%=      5-min Rain = 0
KAI1 200955Z 18005KT M06/M08 A3028 RMK A01 T10621083  RH  085%=      5-min Rain = 0
KAI1 200956Z 19005KT M06/M08 A3028 RMK A01 T10621083  RH  085%=      5-min Rain = 0
KAI1 200957Z 18005KT M06/M08 A3028 RMK A01 T10621083  RH  085%=      5-min Rain = 0
KAI1 200958Z 18005KT M06/M08 A3027 RMK A01 T10621082  RH  086%=      5-min Rain = 0
KAI1 200959Z 18005KT M06/M08 A3027 RMK A01 T10621083  RH  086%=      5-min Rain = 0
KAI1 201000Z 18005KT M06/M08 A3028 RMK A01 T10631082  RH  086%=      5-min Rain = 0
KAI1 201001Z 18005KT M06/M08 A3028 RMK A01 T10621082  RH  086%=      5-min Rain = 0
KAI1 201002Z 18005KT M06/M08 A3028 RMK A01 T10621082  RH  086%=      5-min Rain = 0
KAI1 201003Z 18005KT M06/M08 A3028 RMK A01 T10621082  RH  086%=      5-min Rain = 0
KAI1 201004Z 18005KT M06/M08 A3028 RMK A01 T10621082  RH  086%=      5-min Rain = 0
KAI1 201005Z 18005KT M06/M08 A3028 RMK A01 T10621082  RH  086%=      5-min Rain = 0
KAI1 201006Z 18005KT M06/M08 A3028 RMK A01 T10621082  RH  086%=      5-min Rain = 0
KAI1 201007Z 18005KT M06/M08 A3028 RMK A01 T10621082  RH  086%=      5-min Rain = 0
KAI1 201008Z 17005KT M06/M08 A3028 RMK A01 T10631083  RH  086%=      5-min Rain = 0
KAI1 201009Z 17005KT M06/M08 A3027 RMK A01 T10631083  RH  086%=      5-min Rain = 0
KAI1 201010Z 18005KT M06/M08 A3027 RMK A01 T10631083  RH  086%=      5-min Rain = 0
KAI1 201011Z 18005KT M06/M08 A3027 RMK A01 T10641083  RH  086%=      5-min Rain = 0
KAI1 201012Z 18005KT M06/M08 A3027 RMK A01 T10641082  RH  087%=      5-min Rain = 0
KAI1 201013Z 18005KT M06/M08 A3027 RMK A01 T10631082  RH  087%=      5-min Rain = 0
KAI1 201014Z 18005KT M06/M08 A3027 RMK A01 T10631082  RH  087%=      5-min Rain = 0
KAI1 201015Z 18005KT M06/M08 A3027 RMK A01 T10631081  RH  087%=      5-min Rain = 0
KAI1 201016Z 18006KT M06/M08 A3027 RMK A01 T10631081  RH  087%=      5-min Rain = 0
KAI1 201017Z 18006KT M06/M08 A3027 RMK A01 T10621081  RH  087%=      5-min Rain = 0
KAI1 201018Z 18006KT M06/M08 A3027 RMK A01 T10631082  RH  087%=      5-min Rain = 0
KAI1 201019Z 18006KT M06/M08 A3027 RMK A01 T10631082  RH  086%=      5-min Rain = 0
KAI1 201020Z 18006KT M06/M08 A3027 RMK A01 T10631082  RH  086%=      5-min Rain = 0
KAI1 201021Z 18006KT M06/M08 A3027 RMK A01 T10631082  RH  087%=      5-min Rain = 0
KAI1 201022Z 18006KT M06/M08 A3027 RMK A01 T10631082  RH  087%=      5-min Rain = 0
KAI1 201023Z 18006KT M06/M08 A3027 RMK A01 T10641081  RH  087%=      5-min Rain = 0
KAI1 201024Z 18005KT M06/M08 A3027 RMK A01 T10631080  RH  088%=      5-min Rain = 0
KAI1 201025Z 18006KT M06/M08 A3027 RMK A01 T10631080  RH  088%=      5-min Rain = 0
KAI1 201026Z 19006KT M06/M08 A3027 RMK A01 T10621079  RH  088%=      5-min Rain = 0
KAI1 201027Z 19006KT M06/M08 A3027 RMK A01 T10611078  RH  088%=      5-min Rain = 0
KAI1 201028Z 19006KT M06/M08 A3027 RMK A01 T10611078  RH  088%=      5-min Rain = 0
KAI1 201029Z 18006KT M06/M08 A3027 RMK A01 T10601077  RH  088%=      5-min Rain = 0
KAI1 201030Z 18006KT M06/M08 A3027 RMK A01 T10591077  RH  088%=      5-min Rain = 0
KAI1 201031Z 18006KT M06/M08 A3027 RMK A01 T10591077  RH  087%=      5-min Rain = 0
KAI1 201032Z 18006KT M06/M08 A3027 RMK A01 T10591077  RH  087%=      5-min Rain = 0
KAI1 201033Z 18006KT M06/M08 A3027 RMK A01 T10591078  RH  087%=      5-min Rain = 0
KAI1 201034Z 18006KT M06/M08 A3027 RMK A01 T10591078  RH  086%=      5-min Rain = 0
KAI1 201035Z 18006KT M06/M08 A3027 RMK A01 T10591079  RH  086%=      5-min Rain = 0
KAI1 201036Z 17006KT M06/M08 A3027 RMK A01 T10591079  RH  086%=      5-min Rain = 0
KAI1 201037Z 17006KT M06/M08 A3027 RMK A01 T10601080  RH  086%=      5-min Rain = 0
KAI1 201038Z 17006KT M06/M08 A3027 RMK A01 T10601080  RH  086%=      5-min Rain = 0
KAI1 201039Z 18006KT M06/M08 A3027 RMK A01 T10601079  RH  086%=      5-min Rain = 0
KAI1 201040Z 18006KT M06/M08 A3027 RMK A01 T10601079  RH  086%=      5-min Rain = 0
KAI1 201041Z 18006KT M06/M08 A3027 RMK A01 T10601079  RH  086%=      5-min Rain = 0
KAI1 201042Z 18006KT M06/M08 A3027 RMK A01 T10601079  RH  087%=      5-min Rain = 0
KAI1 201043Z 18006KT M06/M08 A3027 RMK A01 T10601078  RH  087%=      5-min Rain = 0
KAI1 201044Z 18006KT M06/M08 A3027 RMK A01 T10591078  RH  087%=      5-min Rain = 0
KAI1 201045Z 18006KT M06/M08 A3027 RMK A01 T10591078  RH  086%=      5-min Rain = 0
KAI1 201046Z 18006KT M06/M08 A3027 RMK A01 T10581078  RH  086%=      5-min Rain = 0
KAI1 201047Z 18006KT M06/M08 A3027 RMK A01 T10581078  RH  086%=      5-min Rain = 0
KAI1 201048Z 18006KT M06/M08 A3027 RMK A01 T10581078  RH  086%=      5-min Rain = 0
KAI1 201049Z 18007KT M06/M08 A3027 RMK A01 T10581078  RH  085%=      5-min Rain = 0
KAI1 201050Z 18006KT M06/M08 A3027 RMK A01 T10581079  RH  085%=      5-min Rain = 0
KAI1 201051Z 18007KT M06/M08 A3027 RMK A01 T10591079  RH  085%=      5-min Rain = 0
KAI1 201052Z 18006KT M06/M08 A3027 RMK A01 T10591080  RH  086%=      5-min Rain = 0
KAI1 201053Z 18007KT M06/M08 A3026 RMK A01 T10591080  RH  086%=      5-min Rain = 0
KAI1 201054Z 18007KT M06/M08 A3026 RMK A01 T10591079  RH  086%=      5-min Rain = 0
KAI1 201055Z 18007KT M06/M08 A3026 RMK A01 T10591079  RH  086%=      5-min Rain = 0
KAI1 201056Z 18006KT M06/M08 A3026 RMK A01 T10581078  RH  086%=      5-min Rain = 0
KAI1 201057Z 18007KT M06/M08 A3026 RMK A01 T10581077  RH  086%=      5-min Rain = 0
KAI1 201058Z 18007KT M06/M08 A3026 RMK A01 T10571077  RH  086%=      5-min Rain = 0
KAI1 201059Z 18007KT M06/M08 A3026 RMK A01 T10571077  RH  085%=      5-min Rain = 0
KAI1 201100Z 18007KT M06/M08 A3026 RMK A01 T10571078  RH  085%=      5-min Rain = 0
KAI1 201101Z 18007KT M06/M08 A3026 RMK A01 T10561077  RH  085%=      5-min Rain = 0
KAI1 201102Z 18007KT M06/M08 A3026 RMK A01 T10551077  RH  085%=      5-min Rain = 0
KAI1 201103Z 18007KT M06/M08 A3026 RMK A01 T10551077  RH  085%=      5-min Rain = 0
KAI1 201104Z 19007KT M06/M08 A3026 RMK A01 T10561077  RH  085%=      5-min Rain = 0
KAI1 201105Z 18007KT M06/M08 A3026 RMK A01 T10561077  RH  085%=      5-min Rain = 0
KAI1 201106Z 18008KT M06/M08 A3026 RMK A01 T10551077  RH  085%=      5-min Rain = 0
KAI1 201107Z 18008KT M06/M08 A3026 RMK A01 T10551077  RH  085%=      5-min Rain = 0
KAI1 201108Z 18008KT M06/M08 A3025 RMK A01 T10551077  RH  084%=      5-min Rain = 0
KAI1 201109Z 18008KT M06/M08 A3025 RMK A01 T10551077  RH  084%=      5-min Rain = 0
KAI1 201110Z 18008KT M05/M08 A3025 RMK A01 T10541077  RH  084%=      5-min Rain = 0
KAI1 201111Z 18007KT M05/M08 A3025 RMK A01 T10531076  RH  084%=      5-min Rain = 0
KAI1 201112Z 19007KT M05/M08 A3025 RMK A01 T10531076  RH  084%=      5-min Rain = 0
KAI1 201113Z 18007KT M05/M08 A3025 RMK A01 T10541077  RH  084%=      5-min Rain = 0
KAI1 201114Z 19007KT M05/M08 A3026 RMK A01 T10541077  RH  084%=      5-min Rain = 0
KAI1 201115Z 19007KT M05/M08 A3025 RMK A01 T10541077  RH  084%=      5-min Rain = 0
KAI1 201116Z 19007KT M05/M08 A3025 RMK A01 T10531077  RH  084%=      5-min Rain = 0
KAI1 201117Z 19008KT M05/M08 A3025 RMK A01 T10541077  RH  084%=      5-min Rain = 0
KAI1 201118Z 19007KT M05/M08 A3025 RMK A01 T10541077  RH  084%=      5-min Rain = 0
KAI1 201119Z 19008KT M05/M08 A3025 RMK A01 T10541077  RH  084%=      5-min Rain = 0
KAI1 201120Z 19008KT M05/M08 A3025 RMK A01 T10541077  RH  084%=      5-min Rain = 0
KAI1 201121Z 19008KT M05/M08 A3025 RMK A01 T10541077  RH  084%=      5-min Rain = 0
KAI1 201122Z 19008KT M05/M08 A3025 RMK A01 T10531076  RH  084%=      5-min Rain = 0
KAI1 201123Z 19008KT M05/M08 A3025 RMK A01 T10531076  RH  084%=      5-min Rain = 0
KAI1 201124Z 19007KT M05/M08 A3025 RMK A01 T10531076  RH  084%=      5-min Rain = 0
KAI1 201125Z 19008KT M05/M08 A3025 RMK A01 T10521076  RH  084%=      5-min Rain = 0
KAI1 201126Z 19007KT M05/M08 A3025 RMK A01 T10531076  RH  084%=      5-min Rain = 0
KAI1 201127Z 19007KT M05/M08 A3025 RMK A01 T10531076  RH  084%=      5-min Rain = 0
KAI1 201128Z 18008KT M05/M08 A3025 RMK A01 T10531076  RH  084%=      5-min Rain = 0
KAI1 201129Z 18008KT M05/M08 A3025 RMK A01 T10521076  RH  084%=      5-min Rain = 0
KAI1 201130Z 18008KT M05/M08 A3025 RMK A01 T10521076  RH  084%=      5-min Rain = 0
KAI1 201131Z 18008KT M05/M08 A3024 RMK A01 T10521076  RH  083%=      5-min Rain = 0
KAI1 201132Z 18008KT M05/M08 A3024 RMK A01 T10521076  RH  083%=      5-min Rain = 0
KAI1 201133Z 18008KT M05/M08 A3024 RMK A01 T10521076  RH  083%=      5-min Rain = 0
KAI1 201134Z 18008KT M05/M08 A3024 RMK A01 T10521076  RH  083%=      5-min Rain = 0
KAI1 201135Z 18008KT M05/M08 A3024 RMK A01 T10521077  RH  083%=      5-min Rain = 0
KAI1 201136Z 18007KT M05/M08 A3024 RMK A01 T10521077  RH  083%=      5-min Rain = 0
KAI1 201137Z 18008KT M05/M08 A3024 RMK A01 T10521077  RH  083%=      5-min Rain = 0
KAI1 201138Z 18008KT M05/M08 A3024 RMK A01 T10531077  RH  083%=      5-min Rain = 0
KAI1 201139Z 18008KT M05/M08 A3024 RMK A01 T10521077  RH  083%=      5-min Rain = 0
KAI1 201140Z 18008KT M05/M08 A3024 RMK A01 T10521077  RH  083%=      5-min Rain = 0
KAI1 201141Z 18009KT M05/M08 A3024 RMK A01 T10521076  RH  083%=      5-min Rain = 0
KAI1 201142Z 18008KT M05/M08 A3024 RMK A01 T10521076  RH  083%=      5-min Rain = 0
KAI1 201143Z 18008KT M05/M08 A3024 RMK A01 T10511076  RH  083%=      5-min Rain = 0
KAI1 201144Z 18008KT M05/M08 A3024 RMK A01 T10511077  RH  082%=      5-min Rain = 0
KAI1 201145Z 18008KT M05/M08 A3024 RMK A01 T10521077  RH  082%=      5-min Rain = 0
KAI1 201146Z 18008KT M05/M08 A3024 RMK A01 T10511077  RH  082%=      5-min Rain = 0
KAI1 201147Z 18007KT M05/M08 A3024 RMK A01 T10511077  RH  082%=      5-min Rain = 0
KAI1 201148Z 18007KT M05/M08 A3024 RMK A01 T10521077  RH  082%=      5-min Rain = 0
KAI1 201149Z 18008KT M05/M08 A3024 RMK A01 T10521077  RH  082%=      5-min Rain = 0
KAI1 201150Z 18008KT M05/M08 A3024 RMK A01 T10521077  RH  082%=      5-min Rain = 0
KAI1 201151Z 18008KT M05/M08 A3024 RMK A01 T10521077  RH  082%=      5-min Rain = 0
KAI1 201152Z 17008KT M05/M08 A3024 RMK A01 T10521077  RH  082%=      5-min Rain = 0
KAI1 201153Z 17008KT M05/M08 A3024 RMK A01 T10521078  RH  082%=      5-min Rain = 0
KAI1 201154Z 18009KT M05/M08 A3024 RMK A01 T10521078  RH  082%=      5-min Rain = 0
KAI1 201155Z 18009KT M05/M08 A3024 RMK A01 T10531078  RH  082%=      5-min Rain = 0
KAI1 201156Z 18009KT M05/M08 A3024 RMK A01 T10531078  RH  083%=      5-min Rain = 0
KAI1 201157Z 18009KT M05/M08 A3024 RMK A01 T10531078  RH  083%=      5-min Rain = 0
KAI1 201158Z 18009KT M05/M08 A3024 RMK A01 T10531078  RH  083%=      5-min Rain = 0
KAI1 201159Z 18009KT M05/M08 A3024 RMK A01 T10531078  RH  083%=      5-min Rain = 0
KAI1 201200Z 18009KT M05/M08 A3024 RMK A01 T10531078  RH  083%=      5-min Rain = 0
KAI1 201201Z 18009KT M05/M08 A3024 RMK A01 T10531078  RH  083%=      5-min Rain = 0
KAI1 201202Z 18009KT M05/M08 A3024 RMK A01 T10531078  RH  083%=      5-min Rain = 0
KAI1 201203Z 18009KT M05/M08 A3024 RMK A01 T10531078  RH  083%=      5-min Rain = 0
KAI1 201204Z 18009KT M05/M08 A3024 RMK A01 T10521077  RH  083%=      5-min Rain = 0
KAI1 201205Z 18010KT M05/M08 A3024 RMK A01 T10511077  RH  082%=      5-min Rain = 0
KAI1 201206Z 18010KT M05/M08 A3024 RMK A01 T10511077  RH  082%=      5-min Rain = 0
KAI1 201207Z 19009KT M05/M08 A3024 RMK A01 T10511077  RH  082%=      5-min Rain = 0
KAI1 201208Z 19009KT M05/M08 A3024 RMK A01 T10511077  RH  082%=      5-min Rain = 0
KAI1 201209Z 19009KT M05/M08 A3024 RMK A01 T10511077  RH  082%=      5-min Rain = 0
KAI1 201210Z 19009KT M05/M08 A3024 RMK A01 T10521078  RH  082%=      5-min Rain = 0
KAI1 201211Z 19009KT M05/M08 A3024 RMK A01 T10521078  RH  082%=      5-min Rain = 0
KAI1 201212Z 19009KT M05/M08 A3024 RMK A01 T10521078  RH  082%=      5-min Rain = 0
KAI1 201213Z 19009KT M05/M08 A3024 RMK A01 T10521078  RH  082%=      5-min Rain = 0
KAI1 201214Z 19009KT M05/M08 A3024 RMK A01 T10521077  RH  082%=      5-min Rain = 0
KAI1 201215Z 19009KT M05/M08 A3024 RMK A01 T10521077  RH  082%=      5-min Rain = 0
KAI1 201216Z 19009KT M05/M08 A3023 RMK A01 T10521078  RH  082%=      5-min Rain = 0
KAI1 201217Z 18009KT M05/M08 A3023 RMK A01 T10521078  RH  082%=      5-min Rain = 0
KAI1 201218Z 19009KT M05/M08 A3023 RMK A01 T10521077  RH  083%=      5-min Rain = 0
KAI1 201219Z 19009KT M05/M08 A3023 RMK A01 T10521077  RH  083%=      5-min Rain = 0
KAI1 201220Z 19009KT M05/M08 A3023 RMK A01 T10521077  RH  082%=      5-min Rain = 0
KAI1 201221Z 19009KT M05/M08 A3023 RMK A01 T10511077  RH  082%=      5-min Rain = 0
KAI1 201222Z 19009KT M05/M08 A3023 RMK A01 T10511077  RH  082%=      5-min Rain = 0
KAI1 201223Z 19009KT M05/M08 A3023 RMK A01 T10511077  RH  082%=      5-min Rain = 0
KAI1 201224Z 19008KT M05/M08 A3023 RMK A01 T10511077  RH  082%=      5-min Rain = 0
KAI1 201225Z 19009KT M05/M08 A3023 RMK A01 T10511077  RH  082%=      5-min Rain = 0
KAI1 201226Z 19009KT M05/M08 A3023 RMK A01 T10511077  RH  082%=      5-min Rain = 0
KAI1 201227Z 19010KT M05/M08 A3023 RMK A01 T10511077  RH  082%=      5-min Rain = 0
KAI1 201228Z 19009KT M05/M08 A3023 RMK A01 T10511077  RH  082%=      5-min Rain = 0
KAI1 201229Z 19009KT M05/M08 A3023 RMK A01 T10511077  RH  082%=      5-min Rain = 0
KAI1 201230Z 19009KT M05/M08 A3023 RMK A01 T10511077  RH  082%=      5-min Rain = 0
KAI1 201231Z 19009KT M05/M08 A3023 RMK A01 T10511077  RH  082%=      5-min Rain = 0
KAI1 201232Z 19009KT M05/M08 A3023 RMK A01 T10501077  RH  082%=      5-min Rain = 0
KAI1 201233Z 19010KT M05/M08 A3023 RMK A01 T10501077  RH  082%=      5-min Rain = 0
KAI1 201234Z 19010KT M05/M08 A3023 RMK A01 T10491076  RH  081%=      5-min Rain = 0
KAI1 201235Z 19010KT M05/M08 A3023 RMK A01 T10481077  RH  081%=      5-min Rain = 0
KAI1 201236Z 18010KT M05/M08 A3023 RMK A01 T10481077  RH  080%=      5-min Rain = 0
KAI1 201237Z 19009KT M05/M08 A3023 RMK A01 T10481077  RH  080%=      5-min Rain = 0
KAI1 201238Z 19010KT M05/M08 A3023 RMK A01 T10481077  RH  080%=      5-min Rain = 0
KAI1 201239Z 19010KT M05/M08 A3023 RMK A01 T10481077  RH  080%=      5-min Rain = 0
KAI1 201240Z 19010KT M05/M08 A3023 RMK A01 T10481077  RH  080%=      5-min Rain = 0
KAI1 201241Z 19010KT M05/M08 A3023 RMK A01 T10481077  RH  080%=      5-min Rain = 0
KAI1 201242Z 19009KT M05/M08 A3023 RMK A01 T10471077  RH  080%=      5-min Rain = 0
KAI1 201243Z 19010KT M05/M08 A3023 RMK A01 T10481077  RH  080%=      5-min Rain = 0
KAI1 201244Z 19010KT M05/M08 A3023 RMK A01 T10481077  RH  080%=      5-min Rain = 0
KAI1 201245Z 19010KT M05/M08 A3023 RMK A01 T10481077  RH  080%=      5-min Rain = 0
KAI1 201246Z 19009KT M05/M08 A3023 RMK A01 T10481077  RH  080%=      5-min Rain = 0
KAI1 201247Z 19009KT M05/M08 A3023 RMK A01 T10481077  RH  080%=      5-min Rain = 0
KAI1 201248Z 19010KT M05/M08 A3023 RMK A01 T10481077  RH  080%=      5-min Rain = 0
KAI1 201249Z 19009KT M05/M08 A3023 RMK A01 T10481077  RH  080%=      5-min Rain = 0
KAI1 201250Z 19009KT M05/M08 A3023 RMK A01 T10491077  RH  080%=      5-min Rain = 0
KAI1 201251Z 19009KT M05/M08 A3023 RMK A01 T10491077  RH  080%=      5-min Rain = 0
KAI1 201252Z 19009KT M05/M08 A3023 RMK A01 T10481077  RH  080%=      5-min Rain = 0
KAI1 201253Z 19009KT M05/M08 A3023 RMK A01 T10481078  RH  080%=      5-min Rain = 0
KAI1 201254Z 19009KT M05/M08 A3023 RMK A01 T10481078  RH  080%=      5-min Rain = 0
KAI1 201255Z 19010KT M05/M08 A3024 RMK A01 T10481078  RH  079%=      5-min Rain = 0
KAI1 201256Z 19009KT M05/M08 A3024 RMK A01 T10471078  RH  079%=      5-min Rain = 0
KAI1 201257Z 19009KT M05/M08 A3024 RMK A01 T10471079  RH  079%=      5-min Rain = 0
KAI1 201258Z 20008KT M05/M08 A3024 RMK A01 T10471079  RH  078%=      5-min Rain = 0
KAI1 201259Z 20007KT M05/M08 A3024 RMK A01 T10471079  RH  078%=      5-min Rain = 0
KAI1 201300Z 20008KT M05/M08 A3024 RMK A01 T10471079  RH  079%=      5-min Rain = 0
KAI1 201301Z 20008KT M05/M08 A3024 RMK A01 T10481078  RH  079%=      5-min Rain = 0
KAI1 201302Z 20008KT M05/M08 A3023 RMK A01 T10491078  RH  080%=      5-min Rain = 0
KAI1 201303Z 20008KT M05/M08 A3023 RMK A01 T10491078  RH  080%=      5-min Rain = 0
KAI1 201304Z 20008KT M05/M08 A3023 RMK A01 T10491078  RH  080%=      5-min Rain = 0
KAI1 201305Z 20007KT M05/M08 A3023 RMK A01 T10501078  RH  080%=      5-min Rain = 0
KAI1 201306Z 20008KT M05/M08 A3023 RMK A01 T10501079  RH  080%=      5-min Rain = 0
KAI1 201307Z 21007KT M05/M08 A3024 RMK A01 T10501079  RH  080%=      5-min Rain = 0
KAI1 201308Z 21006KT M05/M08 A3024 RMK A01 T10511080  RH  081%=      5-min Rain = 0
KAI1 201309Z 21007KT M05/M08 A3024 RMK A01 T10521080  RH  081%=      5-min Rain = 0
KAI1 201310Z 21007KT M05/M08 A3024 RMK A01 T10531080  RH  081%=      5-min Rain = 0
KAI1 201311Z 21007KT M05/M08 A3024 RMK A01 T10531080  RH  081%=      5-min Rain = 0
KAI1 201312Z 20007KT M05/M08 A3024 RMK A01 T10531080  RH  082%=      5-min Rain = 0
KAI1 201313Z 20007KT M05/M08 A3024 RMK A01 T10541080  RH  082%=      5-min Rain = 0
KAI1 201314Z 20006KT M05/M08 A3024 RMK A01 T10541080  RH  082%=      5-min Rain = 0
KAI1 201315Z 20006KT M05/M08 A3024 RMK A01 T10541080  RH  082%=      5-min Rain = 0
KAI1 201316Z 20007KT M05/M08 A3024 RMK A01 T10541080  RH  082%=      5-min Rain = 0
KAI1 201317Z 20007KT M05/M08 A3024 RMK A01 T10541079  RH  082%=      5-min Rain = 0
KAI1 201318Z 20007KT M05/M08 A3024 RMK A01 T10541079  RH  082%=      5-min Rain = 0
KAI1 201319Z 21006KT M05/M08 A3024 RMK A01 T10541080  RH  082%=      5-min Rain = 0
KAI1 201320Z 20007KT M05/M08 A3024 RMK A01 T10541080  RH  082%=      5-min Rain = 0
KAI1 201321Z 20007KT M05/M08 A3024 RMK A01 T10541079  RH  082%=      5-min Rain = 0
KAI1 201322Z 20008KT M05/M08 A3024 RMK A01 T10541079  RH  082%=      5-min Rain = 0
KAI1 201323Z 20008KT M05/M08 A3024 RMK A01 T10541079  RH  082%=      5-min Rain = 0
KAI1 201324Z 20008KT M05/M08 A3024 RMK A01 T10531079  RH  082%=      5-min Rain = 0
KAI1 201325Z 19008KT M05/M08 A3024 RMK A01 T10521079  RH  081%=      5-min Rain = 0
KAI1 201326Z 19008KT M05/M08 A3024 RMK A01 T10521079  RH  081%=      5-min Rain = 0
KAI1 201327Z 20008KT M05/M08 A3024 RMK A01 T10511079  RH  081%=      5-min Rain = 0
KAI1 201328Z 20008KT M05/M08 A3024 RMK A01 T10511079  RH  081%=      5-min Rain = 0
KAI1 201329Z 20008KT M05/M08 A3024 RMK A01 T10511079  RH  081%=      5-min Rain = 0
KAI1 201330Z 20008KT M05/M08 A3024 RMK A01 T10511079  RH  081%=      5-min Rain = 0
KAI1 201331Z 20008KT M05/M08 A3024 RMK A01 T10511079  RH  081%=      5-min Rain = 0
KAI1 201332Z 20009KT M05/M08 A3024 RMK A01 T10511079  RH  081%=      5-min Rain = 0
KAI1 201333Z 20008KT M05/M08 A3024 RMK A01 T10511079  RH  080%=      5-min Rain = 0
KAI1 201334Z 20008KT M05/M08 A3024 RMK A01 T10511079  RH  080%=      5-min Rain = 0
KAI1 201335Z 20008KT M05/M08 A3024 RMK A01 T10501079  RH  080%=      5-min Rain = 0
KAI1 201336Z 19009KT M05/M08 A3024 RMK A01 T10501079  RH  080%=      5-min Rain = 0
KAI1 201337Z 20009KT M05/M08 A3024 RMK A01 T10501079  RH  080%=      5-min Rain = 0
KAI1 201338Z 20009KT M05/M08 A3024 RMK A01 T10501079  RH  080%=      5-min Rain = 0
KAI1 201339Z 20009KT M05/M08 A3024 RMK A01 T10491079  RH  079%=      5-min Rain = 0
KAI1 201340Z 20008KT M05/M08 A3024 RMK A01 T10491079  RH  079%=      5-min Rain = 0
KAI1 201341Z 20008KT M05/M08 A3024 RMK A01 T10481079  RH  079%=      5-min Rain = 0
KAI1 201342Z 20008KT M05/M08 A3024 RMK A01 T10481079  RH  079%=      5-min Rain = 0
KAI1 201343Z 20008KT M05/M08 A3024 RMK A01 T10491080  RH  079%=      5-min Rain = 0
KAI1 201344Z 20008KT M05/M08 A3024 RMK A01 T10491079  RH  079%=      5-min Rain = 0
KAI1 201345Z 20008KT M05/M08 A3024 RMK A01 T10481079  RH  079%=      5-min Rain = 0
KAI1 201346Z 20007KT M05/M08 A3024 RMK A01 T10491080  RH  079%=      5-min Rain = 0
KAI1 201347Z 20007KT M05/M08 A3024 RMK A01 T10501080  RH  079%=      5-min Rain = 0
KAI1 201348Z 20008KT M05/M08 A3024 RMK A01 T10501080  RH  080%=      5-min Rain = 0
KAI1 201349Z 20008KT M05/M08 A3024 RMK A01 T10511080  RH  080%=      5-min Rain = 0
KAI1 201350Z 20007KT M05/M08 A3024 RMK A01 T10511080  RH  080%=      5-min Rain = 0
KAI1 201351Z 20007KT M05/M08 A3024 RMK A01 T10521080  RH  080%=      5-min Rain = 0
KAI1 201352Z 20007KT M05/M08 A3024 RMK A01 T10521080  RH  081%=      5-min Rain = 0
KAI1 201353Z 20008KT M05/M08 A3024 RMK A01 T10521080  RH  081%=      5-min Rain = 0
KAI1 201354Z 20008KT M05/M08 A3024 RMK A01 T10521080  RH  081%=      5-min Rain = 0
KAI1 201355Z 20008KT M05/M08 A3024 RMK A01 T10521080  RH  081%=      5-min Rain = 0
KAI1 201356Z 20008KT M05/M08 A3024 RMK A01 T10521080  RH  081%=      5-min Rain = 0
KAI1 201357Z 20008KT M05/M08 A3024 RMK A01 T10511080  RH  080%=      5-min Rain = 0
KAI1 201358Z 20007KT M05/M08 A3024 RMK A01 T10511080  RH  080%=      5-min Rain = 0
KAI1 201359Z 20008KT M05/M08 A3024 RMK A01 T10511080  RH  080%=      5-min Rain = 0
KAI1 201400Z 20008KT M05/M08 A3024 RMK A01 T10511080  RH  080%=      5-min Rain = 0
KAI1 201401Z 20008KT M05/M08 A3024 RMK A01 T10511080  RH  080%=      5-min Rain = 0
KAI1 201402Z 20008KT M05/M08 A3024 RMK A01 T10511080  RH  080%=      5-min Rain = 0
KAI1 201403Z 20008KT M05/M08 A3024 RMK A01 T10511080  RH  080%=      5-min Rain = 0
KAI1 201404Z 20008KT M05/M08 A3024 RMK A01 T10511080  RH  081%=      5-min Rain = 0
KAI1 201405Z 20008KT M05/M08 A3024 RMK A01 T10511080  RH  081%=      5-min Rain = 0
KAI1 201406Z 20008KT M05/M08 A3024 RMK A01 T10511079  RH  081%=      5-min Rain = 0
KAI1 201407Z 20007KT M05/M08 A3024 RMK A01 T10511079  RH  081%=      5-min Rain = 0
KAI1 201408Z 20008KT M05/M08 A3024 RMK A01 T10511079  RH  081%=      5-min Rain = 0
KAI1 201409Z 20008KT M05/M08 A3024 RMK A01 T10511079  RH  081%=      5-min Rain = 0
KAI1 201410Z 20008KT M05/M08 A3024 RMK A01 T10511079  RH  081%=      5-min Rain = 0
KAI1 201411Z 20008KT M05/M08 A3024 RMK A01 T10501078  RH  081%=      5-min Rain = 0
KAI1 201412Z 20007KT M05/M08 A3024 RMK A01 T10501078  RH  081%=      5-min Rain = 0
KAI1 201413Z 20008KT M05/M08 A3024 RMK A01 T10491078  RH  081%=      5-min Rain = 0
KAI1 201414Z 20008KT M05/M08 A3024 RMK A01 T10491077  RH  081%=      5-min Rain = 0
KAI1 201415Z 20007KT M05/M08 A3024 RMK A01 T10491077  RH  081%=      5-min Rain = 0
KAI1 201416Z 20007KT M05/M08 A3024 RMK A01 T10491077  RH  081%=      5-min Rain = 0
KAI1 201417Z 20007KT M05/M08 A3024 RMK A01 T10491077  RH  081%=      5-min Rain = 0
KAI1 201418Z 20006KT M05/M08 A3024 RMK A01 T10481076  RH  081%=      5-min Rain = 0
KAI1 201419Z 20007KT M05/M08 A3024 RMK A01 T10481076  RH  081%=      5-min Rain = 0
KAI1 201420Z 20007KT M05/M08 A3024 RMK A01 T10481076  RH  081%=      5-min Rain = 0
KAI1 201421Z 20007KT M05/M08 A3025 RMK A01 T10471076  RH  081%=      5-min Rain = 0
KAI1 201422Z 20007KT M05/M08 A3025 RMK A01 T10471076  RH  081%=      5-min Rain = 0
KAI1 201423Z 20007KT M05/M08 A3025 RMK A01 T10471075  RH  081%=      5-min Rain = 0
KAI1 201424Z 20007KT M05/M08 A3025 RMK A01 T10461075  RH  081%=      5-min Rain = 0
KAI1 201425Z 21007KT M05/M07 A3025 RMK A01 T10461074  RH  081%=      5-min Rain = 0
KAI1 201426Z 21007KT M05/M07 A3025 RMK A01 T10451074  RH  080%=      5-min Rain = 0
KAI1 201427Z 21007KT M05/M07 A3025 RMK A01 T10451074  RH  080%=      5-min Rain = 0
KAI1 201428Z 21008KT M04/M07 A3025 RMK A01 T10441073  RH  080%=      5-min Rain = 0
KAI1 201429Z 21008KT M04/M07 A3025 RMK A01 T10431073  RH  079%=      5-min Rain = 0
KAI1 201430Z 21007KT M04/M07 A3025 RMK A01 T10431073  RH  080%=      5-min Rain = 0
KAI1 201431Z 21008KT M04/M07 A3025 RMK A01 T10421073  RH  079%=      5-min Rain = 0
KAI1 201432Z 21007KT M04/M07 A3025 RMK A01 T10411072  RH  079%=      5-min Rain = 0
KAI1 201433Z 21007KT M04/M07 A3025 RMK A01 T10401071  RH  079%=      5-min Rain = 0
KAI1 201434Z 20007KT M04/M07 A3025 RMK A01 T10401071  RH  079%=      5-min Rain = 0
KAI1 201435Z 20008KT M04/M07 A3025 RMK A01 T10391071  RH  078%=      5-min Rain = 0
KAI1 201436Z 20008KT M04/M07 A3025 RMK A01 T10381071  RH  078%=      5-min Rain = 0
KAI1 201437Z 20008KT M04/M07 A3025 RMK A01 T10371071  RH  077%=      5-min Rain = 0
KAI1 201438Z 21008KT M04/M07 A3025 RMK A01 T10371071  RH  077%=      5-min Rain = 0
KAI1 201439Z 20007KT M04/M07 A3025 RMK A01 T10361070  RH  078%=      5-min Rain = 0
KAI1 201440Z 21006KT M04/M07 A3025 RMK A01 T10361069  RH  078%=      5-min Rain = 0
KAI1 201441Z 20006KT M04/M07 A3025 RMK A01 T10351067  RH  078%=      5-min Rain = 0
KAI1 201442Z 21007KT M03/M07 A3025 RMK A01 T10341066  RH  078%=      5-min Rain = 0
KAI1 201443Z 21008KT M03/M07 A3025 RMK A01 T10341067  RH  078%=      5-min Rain = 0
KAI1 201444Z 21008KT M03/M07 A3024 RMK A01 T10341067  RH  078%=      5-min Rain = 0
KAI1 201445Z 21008KT M03/M07 A3024 RMK A01 T10341067  RH  077%=      5-min Rain = 0
KAI1 201446Z 20009KT M03/M07 A3024 RMK A01 T10331068  RH  077%=      5-min Rain = 0
KAI1 201447Z 21009KT M03/M07 A3024 RMK A01 T10331068  RH  077%=      5-min Rain = 0
KAI1 201448Z 20009KT M03/M07 A3024 RMK A01 T10331067  RH  077%=      5-min Rain = 0
KAI1 201449Z 20008KT M03/M07 A3024 RMK A01 T10321067  RH  077%=      5-min Rain = 0
KAI1 201450Z 20008KT M03/M07 A3024 RMK A01 T10321066  RH  077%=      5-min Rain = 0
KAI1 201451Z 21007KT M03/M07 A3024 RMK A01 T10311065  RH  077%=      5-min Rain = 0
KAI1 201452Z 21008KT M03/M06 A3024 RMK A01 T10301064  RH  077%=      5-min Rain = 0
KAI1 201453Z 21010KT M03/M06 A3024 RMK A01 T10301064  RH  077%=      5-min Rain = 0
KAI1 201454Z 21011KT M03/M06 A3024 RMK A01 T10291064  RH  077%=      5-min Rain = 0
KAI1 201455Z 21009KT M03/M06 A3024 RMK A01 T10291064  RH  077%=      5-min Rain = 0
KAI1 201456Z 20009KT M03/M06 A3024 RMK A01 T10291064  RH  077%=      5-min Rain = 0
KAI1 201457Z 21010KT M03/M07 A3024 RMK A01 T10291065  RH  076%=      5-min Rain = 0
KAI1 201458Z 20010KT M03/M06 A3024 RMK A01 T10281064  RH  077%=      5-min Rain = 0
KAI1 201459Z 21010KT M03/M07 A3024 RMK A01 T10281065  RH  076%=      5-min Rain = 0
KAI1 201500Z 20010KT M03/M06 A3024 RMK A01 T10281064  RH  076%=      5-min Rain = 0
KAI1 201501Z 20011KT M03/M06 A3024 RMK A01 T10271064  RH  076%=      5-min Rain = 0
KAI1 201502Z 20010KT M03/M06 A3024 RMK A01 T10271064  RH  075%=      5-min Rain = 0
KAI1 201503Z 21009KT M03/M06 A3024 RMK A01 T10261063  RH  076%=      5-min Rain = 0
KAI1 201504Z 20010KT M03/M06 A3024 RMK A01 T10261062  RH  076%=      5-min Rain = 0
KAI1 201505Z 20009KT M03/M06 A3024 RMK A01 T10261062  RH  076%=      5-min Rain = 0
KAI1 201506Z 21010KT M03/M06 A3024 RMK A01 T10251061  RH  076%=      5-min Rain = 0
KAI1 201507Z 20010KT M03/M06 A3024 RMK A01 T10251062  RH  076%=      5-min Rain = 0
KAI1 201508Z 20008KT M03/M06 A3024 RMK A01 T10251061  RH  076%=      5-min Rain = 0
KAI1 201509Z 21009KT M02/M06 A3024 RMK A01 T10241059  RH  077%=      5-min Rain = 0
KAI1 201510Z 20009KT M02/M06 A3024 RMK A01 T10241058  RH  077%=      5-min Rain = 0
KAI1 201511Z 20010KT M02/M06 A3024 RMK A01 T10241059  RH  077%=      5-min Rain = 0
KAI1 201512Z 20009KT M02/M06 A3024 RMK A01 T10231059  RH  077%=      5-min Rain = 0
KAI1 201513Z 20008KT M02/M06 A3024 RMK A01 T10231058  RH  077%=      5-min Rain = 0
KAI1 201514Z 20010KT M02/M06 A3024 RMK A01 T10221056  RH  077%=      5-min Rain = 0
KAI1 201515Z 20011KT M02/M06 A3024 RMK A01 T10211058  RH  076%=      5-min Rain = 0
KAI1 201516Z 20010KT M02/M06 A3024 RMK A01 T10211058  RH  076%=      5-min Rain = 0
KAI1 201517Z 20010KT M02/M06 A3024 RMK A01 T10201057  RH  076%=      5-min Rain = 0
KAI1 201518Z 20012KT M02/M06 A3024 RMK A01 T10201058  RH  075%=      5-min Rain = 0
KAI1 201519Z 20013KT M02/M06 A3024 RMK A01 T10201059  RH  075%=      5-min Rain = 0
KAI1 201520Z 20013KT M02/M06 A3024 RMK A01 T10201060  RH  074%=      5-min Rain = 0
KAI1 201521Z 20010KT M02/M06 A3024 RMK A01 T10201059  RH  074%=      5-min Rain = 0
KAI1 201522Z 20011KT M02/M06 A3024 RMK A01 T10191058  RH  075%=      5-min Rain = 0
KAI1 201523Z 20011KT M02/M06 A3024 RMK A01 T10181058  RH  074%=      5-min Rain = 0
KAI1 201524Z 20012KT M02/M06 A3024 RMK A01 T10181059  RH  074%=      5-min Rain = 0
KAI1 201525Z 20010KT M02/M06 A3024 RMK A01 T10181060  RH  074%=      5-min Rain = 0
KAI1 201526Z 20009KT M02/M06 A3024 RMK A01 T10181058  RH  074%=      5-min Rain = 0
KAI1 201527Z 20009KT M02/M06 A3024 RMK A01 T10171056  RH  075%=      5-min Rain = 0
KAI1 201528Z 20010KT M02/M06 A3024 RMK A01 T10161055  RH  074%=      5-min Rain = 0
KAI1 201529Z 21010KT M02/M05 A3024 RMK A01 T10151054  RH  075%=      5-min Rain = 0
KAI1 201530Z 20012KT M01/M06 A3024 RMK A01 T10141055  RH  074%=      5-min Rain = 0
KAI1 201531Z 20012KT M01/M06 A3024 RMK A01 T10141057  RH  073%=      5-min Rain = 0
KAI1 201532Z 20010KT M01/M06 A3024 RMK A01 T10141056  RH  073%=      5-min Rain = 0
KAI1 201533Z 19012KT M01/M06 A3024 RMK A01 T10121055  RH  073%=      5-min Rain = 0
KAI1 201534Z 20011KT M01/M06 A3024 RMK A01 T10111055  RH  072%=      5-min Rain = 0
KAI1 201535Z 20011KT M01/M06 A3024 RMK A01 T10101055  RH  072%=      5-min Rain = 0
KAI1 201536Z 19010KT M01/M05 A3024 RMK A01 T10091054  RH  072%=      5-min Rain = 0
KAI1 201537Z 20010KT M01/M05 A3024 RMK A01 T10071051  RH  072%=      5-min Rain = 0
KAI1 201538Z 19012KT M01/M05 A3024 RMK A01 T10051051  RH  071%=      5-min Rain = 0
KAI1 201539Z 19011KT M01/M05 A3024 RMK A01 T10051052  RH  070%=      5-min Rain = 0
KAI1 201540Z 19010KT M01/M05 A3024 RMK A01 T10051052  RH  070%=      5-min Rain = 0
KAI1 201541Z 20010KT M00/M05 A3024 RMK A01 T10031050  RH  070%=      5-min Rain = 0
KAI1 201542Z 20012KT M00/M05 A3024 RMK A01 T10021050  RH  070%=      5-min Rain = 0
KAI1 201543Z 20011KT M00/M05 A3024 RMK A01 T10011050  RH  070%=      5-min Rain = 0
KAI1 201544Z 20011KT 00/05 A3024 RMK A01 T00-00-48  RH  070%=      5-min Rain = 0
KAI1 201545Z 20012KT 00/M05 A3024 RMK A01 T00011048  RH  069%=      5-min Rain = 0
KAI1 201546Z 20012KT 00/M05 A3024 RMK A01 T00011049  RH  069%=      5-min Rain = 0
KAI1 201547Z 20011KT 00/M05 A3024 RMK A01 T00021047  RH  069%=      5-min Rain = 0
KAI1 201548Z 20011KT 00/M05 A3024 RMK A01 T00041045  RH  070%=      5-min Rain = 0
KAI1 201549Z 20012KT 01/M05 A3024 RMK A01 T00061045  RH  069%=      5-min Rain = 0
KAI1 201550Z 20013KT 01/M05 A3024 RMK A01 T00061046  RH  068%=      5-min Rain = 0
KAI1 201551Z 20012KT 01/M05 A3024 RMK A01 T00061046  RH  068%=      5-min Rain = 0
KAI1 201552Z 20012KT 01/M05 A3024 RMK A01 T00071045  RH  068%=      5-min Rain = 0
KAI1 201553Z 20011KT 01/M04 A3024 RMK A01 T00101042  RH  069%=      5-min Rain = 0
KAI1 201554Z 20012KT 01/M04 A3024 RMK A01 T00131039  RH  068%=      5-min Rain = 0
KAI1 201555Z 20013KT 02/M04 A3024 RMK A01 T00151041  RH  066%=      5-min Rain = 0
KAI1 201556Z 20013KT 02/M04 A3024 RMK A01 T00151042  RH  066%=      5-min Rain = 0
KAI1 201557Z 20014KT 01/M04 A3023 RMK A01 T00141044  RH  065%=      5-min Rain = 0
KAI1 201558Z 20013KT 01/M04 A3023 RMK A01 T00141043  RH  066%=      5-min Rain = 0
KAI1 201559Z 21014KT 02/M04 A3023 RMK A01 T00151042  RH  066%=      5-min Rain = 0
KAI1 201600Z 20014KT 02/M04 A3023 RMK A01 T00161043  RH  065%=      5-min Rain = 0
KAI1 201601Z 20014KT 02/M04 A3023 RMK A01 T00171042  RH  065%=      5-min Rain = 0
KAI1 201602Z 20014KT 02/M04 A3023 RMK A01 T00191041  RH  065%=      5-min Rain = 0
KAI1 201603Z 20014KT 02/M04 A3023 RMK A01 T00211040  RH  064%=      5-min Rain = 0
KAI1 201604Z 20016KT 02/M04 A3023 RMK A01 T00231040  RH  063%=      5-min Rain = 0
KAI1 201605Z 20016KT 02/M04 A3023 RMK A01 T00241042  RH  062%=      5-min Rain = 0
KAI1 201606Z 20016KT 02/M04 A3023 RMK A01 T00241042  RH  062%=      5-min Rain = 0
KAI1 201607Z 20016KT 02/M04 A3023 RMK A01 T00241041  RH  062%=      5-min Rain = 0
KAI1 201608Z 20016KT 03/M04 A3023 RMK A01 T00251041  RH  062%=      5-min Rain = 0
KAI1 201609Z 20015KT 03/M04 A3023 RMK A01 T00251040  RH  062%=      5-min Rain = 0
KAI1 201610Z 21013KT 03/M04 A3023 RMK A01 T00271038  RH  062%=      5-min Rain = 0
KAI1 201611Z 20014KT 03/M04 A3023 RMK A01 T00301036  RH  062%=      5-min Rain = 0
KAI1 201612Z 20016KT 03/M04 A3023 RMK A01 T00311037  RH  061%=      5-min Rain = 0
KAI1 201613Z 20018KT 03/M04 A3023 RMK A01 T00321038  RH  060%=      5-min Rain = 0
KAI1 201614Z 20016KT 03/M04 A3023 RMK A01 T00321039  RH  060%=      5-min Rain = 0
KAI1 201615Z 20015KT 03/M04 A3023 RMK A01 T00331037  RH  060%=      5-min Rain = 0
KAI1 201616Z 20017KT 04/M04 A3023 RMK A01 T00361036  RH  059%=      5-min Rain = 0
KAI1 201617Z 20017KT 04/M04 A3023 RMK A01 T00371037  RH  058%=      5-min Rain = 0
KAI1 201618Z 21016KT 04/M04 A3023 RMK A01 T00371038  RH  058%=      5-min Rain = 0
KAI1 201619Z 20015KT 04/M04 A3023 RMK A01 T00381037  RH  058%=      5-min Rain = 0
KAI1 201620Z 20019KT 04/M04 A3022 RMK A01 T00401036  RH  058%=      5-min Rain = 0
KAI1 201621Z 20017KT 04/M04 A3023 RMK A01 T00401038  RH  057%=      5-min Rain = 0
KAI1 201622Z 20017KT 04/M04 A3023 RMK A01 T00401038  RH  057%=      5-min Rain = 0
KAI1 201623Z 20016KT 04/M04 A3022 RMK A01 T00421037  RH  057%=      5-min Rain = 0
KAI1 201624Z 20017KT 04/M04 A3022 RMK A01 T00431036  RH  057%=      5-min Rain = 0
KAI1 201625Z 20016KT 04/M04 A3022 RMK A01 T00431036  RH  056%=      5-min Rain = 0
KAI1 201626Z 20015KT 04/M04 A3022 RMK A01 T00431036  RH  056%=      5-min Rain = 0
KAI1 201627Z 19014KT 04/M04 A3022 RMK A01 T00441035  RH  056%=      5-min Rain = 0
KAI1 201628Z 20014KT 04/M04 A3022 RMK A01 T00441035  RH  057%=      5-min Rain = 0
KAI1 201629Z 20015KT 04/M04 A3022 RMK A01 T00441035  RH  056%=      5-min Rain = 0
KAI1 201630Z 20014KT 05/M03 A3022 RMK A01 T00451034  RH  056%=      5-min Rain = 0
KAI1 201631Z 20013KT 05/M03 A3022 RMK A01 T00471033  RH  056%=      5-min Rain = 0
KAI1 201632Z 20013KT 05/M03 A3022 RMK A01 T00491030  RH  056%=      5-min Rain = 0
KAI1 201633Z 20012KT 05/M03 A3022 RMK A01 T00511031  RH  055%=      5-min Rain = 0
KAI1 201634Z 19015KT 05/M03 A3022 RMK A01 T00511031  RH  055%=      5-min Rain = 0
KAI1 201635Z 19016KT 05/M03 A3022 RMK A01 T00501034  RH  054%=      5-min Rain = 0
KAI1 201636Z 19016KT 05/M04 A3022 RMK A01 T00481035  RH  055%=      5-min Rain = 0
KAI1 201637Z 19014KT 05/M04 A3022 RMK A01 T00471035  RH  055%=      5-min Rain = 0
KAI1 201638Z 19015KT 05/M03 A3022 RMK A01 T00481031  RH  056%=      5-min Rain = 0
KAI1 201639Z 19015KT 05/M03 A3021 RMK A01 T00491032  RH  055%=      5-min Rain = 0
KAI1 201640Z 19015KT 05/M03 A3021 RMK A01 T00491034  RH  055%=      5-min Rain = 0
KAI1 201641Z 19016KT 05/M03 A3021 RMK A01 T00481034  RH  055%=      5-min Rain = 0
KAI1 201642Z 20015KT 05/M03 A3021 RMK A01 T00491033  RH  055%=      5-min Rain = 0
KAI1 201643Z 20016KT 05/M03 A3021 RMK A01 T00501034  RH  055%=      5-min Rain = 0
KAI1 201644Z 20015KT 05/M03 A3021 RMK A01 T00501034  RH  054%=      5-min Rain = 0
KAI1 201645Z 20018KT 05/M03 A3021 RMK A01 T00501034  RH  055%=      5-min Rain = 0
KAI1 201646Z 20018KT 05/M03 A3021 RMK A01 T00501034  RH  054%=      5-min Rain = 0
KAI1 201647Z 20017KT 05/M04 A3021 RMK A01 T00501035  RH  054%=      5-min Rain = 0
KAI1 201648Z 20013KT 05/M03 A3021 RMK A01 T00521032  RH  055%=      5-min Rain = 0
KAI1 201649Z 20016KT 05/M03 A3022 RMK A01 T00541031  RH  054%=      5-min Rain = 0
KAI1 201650Z 21014KT 06/M03 A3022 RMK A01 T00551032  RH  054%=      5-min Rain = 0
KAI1 201651Z 20016KT 06/M03 A3021 RMK A01 T00561031  RH  054%=      5-min Rain = 0
KAI1 201652Z 20014KT 06/M03 A3021 RMK A01 T00571031  RH  053%=      5-min Rain = 0
KAI1 201653Z 20015KT 06/M03 A3021 RMK A01 T00571031  RH  053%=      5-min Rain = 0
KAI1 201654Z 20017KT 06/M03 A3021 RMK A01 T00581031  RH  053%=      5-min Rain = 0
KAI1 201655Z 20018KT 06/M03 A3021 RMK A01 T00591033  RH  052%=      5-min Rain = 0
KAI1 201656Z 20015KT 06/M03 A3021 RMK A01 T00581032  RH  052%=      5-min Rain = 0
KAI1 201657Z 20014KT 06/M03 A3021 RMK A01 T00591030  RH  053%=      5-min Rain = 0
KAI1 201658Z 20015KT 06/M03 A3021 RMK A01 T00621028  RH  052%=      5-min Rain = 0
KAI1 201659Z 20018KT 06/M03 A3021 RMK A01 T00641029  RH  051%=      5-min Rain = 0
KAI1 201700Z 19016KT 06/M03 A3021 RMK A01 T00631032  RH  051%=      5-min Rain = 0
KAI1 201701Z 20017KT 06/M03 A3021 RMK A01 T00621030  RH  052%=      5-min Rain = 0
KAI1 201702Z 20014KT 06/M03 A3021 RMK A01 T00621031  RH  051%=      5-min Rain = 0
KAI1 201703Z 20013KT 06/M03 A3021 RMK A01 T00641027  RH  052%=      5-min Rain = 0
KAI1 201704Z 21017KT 07/M03 A3021 RMK A01 T00671027  RH  051%=      5-min Rain = 0
KAI1 201705Z 20014KT 07/M03 A3021 RMK A01 T00661030  RH  050%=      5-min Rain = 0
KAI1 201706Z 19015KT 07/M03 A3021 RMK A01 T00651030  RH  051%=      5-min Rain = 0
KAI1 201707Z 20015KT 06/M03 A3021 RMK A01 T00641029  RH  051%=      5-min Rain = 0
KAI1 201708Z 21014KT 07/M03 A3021 RMK A01 T00651028  RH  051%=      5-min Rain = 0
KAI1 201709Z 21016KT 07/M03 A3021 RMK A01 T00661030  RH  051%=      5-min Rain = 0
KAI1 201710Z 21015KT 07/M03 A3021 RMK A01 T00661031  RH  050%=      5-min Rain = 0
KAI1 201711Z 20013KT 07/M03 A3021 RMK A01 T00661028  RH  051%=      5-min Rain = 0
KAI1 201712Z 20015KT 07/M03 A3021 RMK A01 T00681027  RH  051%=      5-min Rain = 0
KAI1 201713Z 21017KT 07/M03 A3021 RMK A01 T00661030  RH  050%=      5-min Rain = 0
KAI1 201714Z 21016KT 07/M03 A3021 RMK A01 T00671029  RH  050%=      5-min Rain = 0
KAI1 201715Z 21016KT 07/M03 A3021 RMK A01 T00691028  RH  050%=      5-min Rain = 0
KAI1 201716Z 20015KT 07/M03 A3021 RMK A01 T00691028  RH  050%=      5-min Rain = 0
KAI1 201717Z 20015KT 07/M03 A3021 RMK A01 T00691029  RH  050%=      5-min Rain = 0
KAI1 201718Z 20018KT 07/M03 A3021 RMK A01 T00691029  RH  050%=      5-min Rain = 0
KAI1 201719Z 20016KT 07/M03 A3021 RMK A01 T00691028  RH  050%=      5-min Rain = 0
KAI1 201720Z 21016KT 07/M03 A3021 RMK A01 T00701027  RH  050%=      5-min Rain = 0
KAI1 201721Z 21017KT 07/M03 A3021 RMK A01 T00711029  RH  049%=      5-min Rain = 0
KAI1 201722Z 21015KT 07/M03 A3021 RMK A01 T00701028  RH  049%=      5-min Rain = 0
KAI1 201723Z 21016KT 07/M03 A3021 RMK A01 T00731026  RH  050%=      5-min Rain = 0
KAI1 201724Z 21013G18KT 08/M02 A3021 RMK A01 T00761024  RH  049%=      5-min Rain = 0
KAI1 201725Z 20016KT 08/M02 A3021 RMK A01 T00771024  RH  049%=      5-min Rain = 0
KAI1 201726Z 21016KT 08/M03 A3021 RMK A01 T00771025  RH  048%=      5-min Rain = 0
KAI1 201727Z 21017KT 08/M03 A3021 RMK A01 T00781026  RH  048%=      5-min Rain = 0
KAI1 201728Z 21014KT 08/M03 A3021 RMK A01 T00771027  RH  047%=      5-min Rain = 0
KAI1 201729Z 21013KT 08/M03 A3021 RMK A01 T00771026  RH  048%=      5-min Rain = 0
KAI1 201730Z 20014KT 08/M02 A302 RMK A01 T00791023  RH  048%=      5-min Rain = 0
KAI1 201731Z 21015G20KT 08/M02 A302 RMK A01 T00811023  RH  048%=      5-min Rain = 0
KAI1 201732Z 21017KT 08/M03 A302 RMK A01 T00831025  RH  047%=      5-min Rain = 0
KAI1 201733Z 21015KT 08/M03 A302 RMK A01 T00831025  RH  047%=      5-min Rain = 0
KAI1 201734Z 21012KT 09/M02 A302 RMK A01 T00851023  RH  046%=      5-min Rain = 0
KAI1 201735Z 21017KT 09/M02 A302 RMK A01 T00881022  RH  046%=      5-min Rain = 0
KAI1 201736Z 22014KT 09/M03 A302 RMK A01 T00871026  RH  045%=      5-min Rain = 0
KAI1 201737Z 21018KT 09/M03 A302 RMK A01 T00871025  RH  045%=      5-min Rain = 0
KAI1 201738Z 20016KT 09/M03 A302 RMK A01 T00871026  RH  045%=      5-min Rain = 0
KAI1 201739Z 20016KT 09/M03 A302 RMK A01 T00871026  RH  045%=      5-min Rain = 0
KAI1 201740Z 20018KT 09/M03 A302 RMK A01 T00871025  RH  045%=      5-min Rain = 0
KAI1 201741Z 21016KT 09/M03 A302 RMK A01 T00861025  RH  045%=      5-min Rain = 0
KAI1 201742Z 22017KT 09/M02 A3019 RMK A01 T00871024  RH  046%=      5-min Rain = 0
KAI1 201743Z 21020KT 09/M03 A3019 RMK A01 T00881027  RH  044%=      5-min Rain = 0
KAI1 201744Z 21017KT 09/M03 A302 RMK A01 T00871028  RH  044%=      5-min Rain = 0
KAI1 201745Z 20015G20KT 09/M03 A302 RMK A01 T00871027  RH  044%=      5-min Rain = 0
KAI1 201746Z 20017KT 09/M03 A3019 RMK A01 T00881025  RH  045%=      5-min Rain = 0
KAI1 201747Z 20015KT 09/M02 A3019 RMK A01 T00901024  RH  045%=      5-min Rain = 0
KAI1 201748Z 21014KT 09/M02 A3019 RMK A01 T00901024  RH  045%=      5-min Rain = 0
KAI1 201749Z 22016KT 09/M02 A3019 RMK A01 T00921023  RH  044%=      5-min Rain = 0
KAI1 201750Z 21017KT 10/M02 A3019 RMK A01 T00951023  RH  043%=      5-min Rain = 0
KAI1 201751Z 21017KT 10/M03 A3019 RMK A01 T00951025  RH  043%=      5-min Rain = 0
KAI1 201752Z 21019KT 10/M03 A3019 RMK A01 T00951025  RH  043%=      5-min Rain = 0
KAI1 201753Z 21018KT 10/M03 A3019 RMK A01 T00951026  RH  043%=      5-min Rain = 0
KAI1 201754Z 21017KT 09/M03 A3019 RMK A01 T00941026  RH  043%=      5-min Rain = 0
KAI1 201755Z 20017KT 10/M02 A3019 RMK A01 T00951024  RH  043%=      5-min Rain = 0
KAI1 201756Z 21017KT 10/M03 A3019 RMK A01 T00971025  RH  042%=      5-min Rain = 0
KAI1 201757Z 22018KT 10/M03 A3019 RMK A01 T00981025  RH  042%=      5-min Rain = 0
KAI1 201758Z 21017KT 10/M03 A3019 RMK A01 T00991028  RH  041%=      5-min Rain = 0
KAI1 201759Z 21017KT 10/M03 A3019 RMK A01 T00981028  RH  041%=      5-min Rain = 0
KAI1 201800Z 21016KT 10/M03 A3019 RMK A01 T00971028  RH  041%=      5-min Rain = 0
KAI1 201801Z 21017KT 10/M03 A3019 RMK A01 T00971026  RH  042%=      5-min Rain = 0
KAI1 201802Z 22014KT 10/M03 A3019 RMK A01 T00971026  RH  042%=      5-min Rain = 0
KAI1 201803Z 22016KT 10/M02 A3019 RMK A01 T01001024  RH  042%=      5-min Rain = 0
KAI1 201804Z 20018KT 10/M03 A3019 RMK A01 T01011026  RH  041%=      5-min Rain = 0
KAI1 201805Z 21016KT 10/M03 A3018 RMK A01 T01011025  RH  041%=      5-min Rain = 0
KAI1 201806Z 22015KT 10/M02 A3018 RMK A01 T01031023  RH  041%=      5-min Rain = 0
KAI1 201807Z 22018KT 11/M03 A3018 RMK A01 T01061025  RH  040%=      5-min Rain = 0
KAI1 201808Z 21014G19KT 11/M03 A3018 RMK A01 T01061027  RH  039%=      5-min Rain = 0
KAI1 201809Z 21014KT 11/M02 A3018 RMK A01 T01061024  RH  040%=      5-min Rain = 0
KAI1 201810Z 21013KT 11/M02 A3018 RMK A01 T01081021  RH  040%=      5-min Rain = 0
KAI1 201811Z 21016KT 11/M02 A3018 RMK A01 T01101024  RH  039%=      5-min Rain = 0
KAI1 201812Z 21018KT 11/M03 A3018 RMK A01 T01101027  RH  038%=      5-min Rain = 0
KAI1 201813Z 22016KT 11/M03 A3018 RMK A01 T01081028  RH  039%=      5-min Rain = 0
KAI1 201814Z 22015KT 11/M03 A3018 RMK A01 T01081027  RH  039%=      5-min Rain = 0
KAI1 201815Z 22016KT 11/M03 A3018 RMK A01 T01091028  RH  038%=      5-min Rain = 0
KAI1 201816Z 23016KT 11/M03 A3018 RMK A01 T01121025  RH  038%=      5-min Rain = 0
KAI1 201817Z 22015KT 11/M03 A3018 RMK A01 T01121026  RH  038%=      5-min Rain = 0
KAI1 201818Z 22016KT 11/M03 A3018 RMK A01 T01121025  RH  038%=      5-min Rain = 0
KAI1 201819Z 22014KT 11/M03 A3018 RMK A01 T01131026  RH  038%=      5-min Rain = 0
KAI1 201820Z 22017KT 11/M03 A3017 RMK A01 T01131027  RH  038%=      5-min Rain = 0
KAI1 201821Z 22016KT 11/M03 A3017 RMK A01 T01131028  RH  037%=      5-min Rain = 0
KAI1 201822Z 22015KT 11/M03 A3017 RMK A01 T01131027  RH  037%=      5-min Rain = 0
KAI1 201823Z 22015G20KT 11/M03 A3017 RMK A01 T01141025  RH  038%=      5-min Rain = 0
KAI1 201824Z 21016KT 12/M02 A3017 RMK A01 T01191023  RH  037%=      5-min Rain = 0
KAI1 201825Z 22015KT 12/M03 A3017 RMK A01 T01181027  RH  036%=      5-min Rain = 0
KAI1 201826Z 22018KT 12/M03 A3017 RMK A01 T01151028  RH  037%=      5-min Rain = 0
KAI1 201827Z 22016KT 11/M03 A3017 RMK A01 T01141030  RH  036%=      5-min Rain = 0
KAI1 201828Z 22014KT 11/M03 A3017 RMK A01 T01141029  RH  037%=      5-min Rain = 0
KAI1 201829Z 21013KT 12/M03 A3017 RMK A01 T01151027  RH  037%=      5-min Rain = 0
KAI1 201830Z 22014KT 12/M02 A3017 RMK A01 T01181024  RH  037%=      5-min Rain = 0
KAI1 201831Z 22015KT 12/M03 A3017 RMK A01 T01191026  RH  036%=      5-min Rain = 0
KAI1 201832Z 22013G18KT 12/M03 A3017 RMK A01 T01191028  RH  036%=      5-min Rain = 0
KAI1 201833Z 22015KT 12/M03 A3017 RMK A01 T01211025  RH  036%=      5-min Rain = 0
KAI1 201834Z 22016KT 12/M03 A3017 RMK A01 T01231028  RH  035%=      5-min Rain = 0
KAI1 201835Z 23014KT 12/M03 A3017 RMK A01 T01211029  RH  035%=      5-min Rain = 0
KAI1 201836Z 21015G20KT 12/M03 A3016 RMK A01 T01211027  RH  036%=      5-min Rain = 0
KAI1 201837Z 21014KT 12/M03 A3016 RMK A01 T01211032  RH  034%=      5-min Rain = 0
KAI1 201838Z 20014KT 12/M03 A3016 RMK A01 T01221029  RH  035%=      5-min Rain = 0
KAI1 201839Z 21013KT 12/M03 A3016 RMK A01 T01231027  RH  035%=      5-min Rain = 0
KAI1 201840Z 22010KT 13/M02 A3017 RMK A01 T01271023  RH  035%=      5-min Rain = 0
KAI1 201841Z 22012KT 13/M02 A3016 RMK A01 T01311022  RH  034%=      5-min Rain = 0
KAI1 201842Z 22017KT 13/M03 A3016 RMK A01 T01321026  RH  033%=      5-min Rain = 0
KAI1 201843Z 22016KT 13/M03 A3016 RMK A01 T01271033  RH  033%=      5-min Rain = 0
KAI1 201844Z 21016KT 13/M03 A3016 RMK A01 T01251033  RH  033%=      5-min Rain = 0
KAI1 201845Z 22015KT 13/M03 A3016 RMK A01 T01261033  RH  033%=      5-min Rain = 0
KAI1 201846Z 23015KT 13/M03 A3016 RMK A01 T01251031  RH  034%=      5-min Rain = 0
KAI1 201847Z 22014G20KT 12/M03 A3016 RMK A01 T01241028  RH  034%=      5-min Rain = 0
KAI1 201848Z 23017KT 13/M03 A3015 RMK A01 T01261031  RH  033%=      5-min Rain = 0
KAI1 201849Z 22015KT 12/M03 A3015 RMK A01 T01241033  RH  033%=      5-min Rain = 0
KAI1 201850Z 22015KT 12/M03 A3015 RMK A01 T01221033  RH  034%=      5-min Rain = 0
KAI1 201851Z 23014KT 12/M03 A3015 RMK A01 T01221031  RH  034%=      5-min Rain = 0
KAI1 201852Z 22017KT 12/M03 A3015 RMK A01 T01241032  RH  033%=      5-min Rain = 0
KAI1 201853Z 22016KT 13/M04 A3015 RMK A01 T01251035  RH  032%=      5-min Rain = 0
KAI1 201854Z 22015KT 13/M03 A3015 RMK A01 T01251033  RH  033%=      5-min Rain = 0
KAI1 201855Z 22017KT 13/M03 A3015 RMK A01 T01251032  RH  033%=      5-min Rain = 0
KAI1 201856Z 21014KT 13/M03 A3015 RMK A01 T01261030  RH  034%=      5-min Rain = 0
KAI1 201857Z 22016KT 13/M03 A3015 RMK A01 T01281030  RH  033%=      5-min Rain = 0
KAI1 201858Z 23015KT 13/M03 A3015 RMK A01 T01301030  RH  033%=      5-min Rain = 0
KAI1 201859Z 22016KT 13/M03 A3015 RMK A01 T01301032  RH  032%=      5-min Rain = 0
KAI1 201900Z 22012KT 13/M03 A3015 RMK A01 T01311030  RH  032%=      5-min Rain = 0
KAI1 201901Z 22014G19KT 13/M03 A3015 RMK A01 T01321030  RH  032%=      5-min Rain = 0
KAI1 201902Z 22016KT 13/M03 A3015 RMK A01 T01331033  RH  031%=      5-min Rain = 0
KAI1 201903Z 22014KT 13/M03 A3015 RMK A01 T01321034  RH  032%=      5-min Rain = 0
KAI1 201904Z 23015KT 13/M03 A3014 RMK A01 T01321031  RH  032%=      5-min Rain = 0
KAI1 201905Z 23014KT 13/M03 A3014 RMK A01 T01321033  RH  032%=      5-min Rain = 0
KAI1 201906Z 22015KT 13/M03 A3014 RMK A01 T01311031  RH  032%=      5-min Rain = 0
KAI1 201907Z 21012KT 13/M03 A3014 RMK A01 T01301031  RH  033%=      5-min Rain = 0
KAI1 201908Z 22012KT 13/M03 A3014 RMK A01 T01311030  RH  032%=      5-min Rain = 0
KAI1 201909Z 24014KT 13/M03 A3014 RMK A01 T01331030  RH  032%=      5-min Rain = 0
KAI1 201910Z 23013KT 13/M03 A3014 RMK A01 T01341028  RH  032%=      5-min Rain = 0
KAI1 201911Z 21015KT 14/M03 A3014 RMK A01 T01371027  RH  032%=      5-min Rain = 0
KAI1 201912Z 21016KT 14/M03 A3013 RMK A01 T01381027  RH  032%=      5-min Rain = 0
KAI1 201913Z 22015KT 14/M03 A3013 RMK A01 T01351029  RH  032%=      5-min Rain = 0
KAI1 201914Z 23014KT 13/M03 A3013 RMK A01 T01341029  RH  032%=      5-min Rain = 0
KAI1 201915Z 22012KT 13/M03 A3013 RMK A01 T01341027  RH  032%=      5-min Rain = 0
KAI1 201916Z 21014KT 14/M03 A3013 RMK A01 T01351029  RH  032%=      5-min Rain = 0
KAI1 201917Z 22016KT 13/M03 A3013 RMK A01 T01341029  RH  032%=      5-min Rain = 0
KAI1 201918Z 22016KT 14/M03 A3013 RMK A01 T01351028  RH  032%=      5-min Rain = 0
KAI1 201919Z 23016KT 14/M03 A3013 RMK A01 T01371030  RH  031%=      5-min Rain = 0
KAI1 201920Z 22014KT 14/M03 A3013 RMK A01 T01351030  RH  032%=      5-min Rain = 0
KAI1 201921Z 22014KT 13/M03 A3013 RMK A01 T01341031  RH  032%=      5-min Rain = 0
KAI1 201922Z 22017KT 13/M03 A3012 RMK A01 T01331031  RH  032%=      5-min Rain = 0
KAI1 201923Z 23017KT 13/M03 A3013 RMK A01 T01341031  RH  032%=      5-min Rain = 0
KAI1 201924Z 22018KT 14/M03 A3012 RMK A01 T01371033  RH  031%=      5-min Rain = 0
KAI1 201925Z 23017KT 14/M03 A3012 RMK A01 T01381034  RH  030%=      5-min Rain = 0
KAI1 201926Z 23015KT 14/M03 A3012 RMK A01 T01391031  RH  031%=      5-min Rain = 0
KAI1 201927Z 23015KT 14/M03 A3012 RMK A01 T01411030  RH  030%=      5-min Rain = 0
KAI1 201928Z 22015KT 14/M03 A3012 RMK A01 T01421031  RH  030%=      5-min Rain = 0
KAI1 201929Z 21016KT 14/M04 A3012 RMK A01 T01401035  RH  030%=      5-min Rain = 0
KAI1 201930Z 22018KT 14/M04 A3012 RMK A01 T01391035  RH  030%=      5-min Rain = 0
KAI1 201931Z 22014KT 14/M04 A3012 RMK A01 T01361037  RH  030%=      5-min Rain = 0
KAI1 201932Z 23014KT 13/M04 A3012 RMK A01 T01341036  RH  031%=      5-min Rain = 0
KAI1 201933Z 23014KT 13/M03 A3012 RMK A01 T01341033  RH  031%=      5-min Rain = 0
KAI1 201934Z 21016KT 13/M03 A3012 RMK A01 T01341034  RH  031%=      5-min Rain = 0
KAI1 201935Z 21015KT 13/M03 A3011 RMK A01 T01331034  RH  031%=      5-min Rain = 0
KAI1 201936Z 21016KT 13/M04 A3011 RMK A01 T01311035  RH  031%=      5-min Rain = 0
KAI1 201937Z 22016KT 13/M03 A3011 RMK A01 T01311034  RH  031%=      5-min Rain = 0
KAI1 201938Z 22015KT 13/M04 A3011 RMK A01 T01301036  RH  031%=      5-min Rain = 0
KAI1 201939Z 22014KT 13/M03 A3011 RMK A01 T01291034  RH  032%=      5-min Rain = 0
KAI1 201940Z 22013KT 13/M03 A3011 RMK A01 T01291033  RH  032%=      5-min Rain = 0
KAI1 201941Z 22014KT 13/M03 A3011 RMK A01 T01291034  RH  032%=      5-min Rain = 0
KAI1 201942Z 22016KT 13/M03 A3011 RMK A01 T01281034  RH  032%=      5-min Rain = 0
KAI1 201943Z 23015KT 13/M03 A3011 RMK A01 T01281034  RH  032%=      5-min Rain = 0
KAI1 201944Z 22015KT 13/M03 A3011 RMK A01 T01291032  RH  033%=      5-min Rain = 0
KAI1 201945Z 22014KT 13/M03 A3011 RMK A01 T01301031  RH  032%=      5-min Rain = 0
KAI1 201946Z 21015KT 13/M03 A3011 RMK A01 T01321030  RH  032%=      5-min Rain = 0
KAI1 201947Z 22015KT 13/M03 A3011 RMK A01 T01341031  RH  032%=      5-min Rain = 0
KAI1 201948Z 22013KT 14/M03 A3011 RMK A01 T01351031  RH  031%=      5-min Rain = 0
KAI1 201949Z 22015KT 14/M03 A3011 RMK A01 T01361029  RH  032%=      5-min Rain = 0
KAI1 201950Z 23017KT 14/M03 A3011 RMK A01 T01371032  RH  031%=      5-min Rain = 0
KAI1 201951Z 23014KT 14/M03 A3011 RMK A01 T01381033  RH  030%=      5-min Rain = 0
KAI1 201952Z 23016KT 14/M03 A3011 RMK A01 T01381032  RH  031%=      5-min Rain = 0
KAI1 201953Z 22013KT 14/M03 A3011 RMK A01 T01371032  RH  031%=      5-min Rain = 0
KAI1 201954Z 22013KT 14/M03 A3011 RMK A01 T01381030  RH  031%=      5-min Rain = 0
KAI1 201955Z 23015KT 14/M03 A3011 RMK A01 T01391031  RH  031%=      5-min Rain = 0
KAI1 201956Z 23013G18KT 14/M03 A3011 RMK A01 T01391032  RH  030%=      5-min Rain = 0
KAI1 201957Z 22017KT 14/M03 A3011 RMK A01 T01391032  RH  030%=      5-min Rain = 0
KAI1 201958Z 22017KT 14/M03 A3011 RMK A01 T01381033  RH  030%=      5-min Rain = 0
KAI1 201959Z 22013KT 14/M03 A3011 RMK A01 T01361033  RH  031%=      5-min Rain = 0
KAI1 202000Z 21012KT 14/M03 A3011 RMK A01 T01361030  RH  031%=      5-min Rain = 0
KAI1 202001Z 22013KT 14/M03 A3011 RMK A01 T01381028  RH  032%=      5-min Rain = 0
KAI1 202002Z 22013KT 14/M03 A3011 RMK A01 T01391029  RH  031%=      5-min Rain = 0
KAI1 202003Z 23016KT 14/M03 A301 RMK A01 T01391029  RH  031%=      5-min Rain = 0
KAI1 202004Z 23015KT 14/M03 A3011 RMK A01 T01391030  RH  031%=      5-min Rain = 0
KAI1 202005Z 22016KT 14/M03 A301 RMK A01 T01391030  RH  031%=      5-min Rain = 0
KAI1 202006Z 22017KT 14/M03 A301 RMK A01 T01381031  RH  031%=      5-min Rain = 0
KAI1 202007Z 22015KT 14/M03 A301 RMK A01 T01361033  RH  031%=      5-min Rain = 0
KAI1 202008Z 22017KT 14/M03 A301 RMK A01 T01351031  RH  031%=      5-min Rain = 0
KAI1 202009Z 23015KT 14/M03 A301 RMK A01 T01361030  RH  031%=      5-min Rain = 0
KAI1 202010Z 22013KT 14/M03 A301 RMK A01 T01361030  RH  031%=      5-min Rain = 0
KAI1 202011Z 22017KT 14/M03 A301 RMK A01 T01381028  RH  032%=      5-min Rain = 0
KAI1 202012Z 22015KT 14/M03 A301 RMK A01 T01381029  RH  031%=      5-min Rain = 0
KAI1 202013Z 21016KT 14/M03 A301 RMK A01 T01411027  RH  031%=      5-min Rain = 0
KAI1 202014Z 22013KT 14/M03 A301 RMK A01 T01421027  RH  031%=      5-min Rain = 0
KAI1 202015Z 22015KT 14/M03 A301 RMK A01 T01431026  RH  031%=      5-min Rain = 0
KAI1 202016Z 22012KT 14/M03 A301 RMK A01 T01441025  RH  031%=      5-min Rain = 0
KAI1 202017Z 21014KT 15/M03 A301 RMK A01 T01451025  RH  031%=      5-min Rain = 0
KAI1 202018Z 23015KT 15/M03 A301 RMK A01 T01451028  RH  030%=      5-min Rain = 0
KAI1 202019Z 23016KT 14/M03 A301 RMK A01 T01431029  RH  030%=      5-min Rain = 0
KAI1 202020Z 22014KT 14/M03 A301 RMK A01 T01411029  RH  031%=      5-min Rain = 0
KAI1 202021Z 22016KT 14/M03 A301 RMK A01 T01401028  RH  031%=      5-min Rain = 0
KAI1 202022Z 21013G18KT 14/M03 A301 RMK A01 T01401028  RH  031%=      5-min Rain = 0
KAI1 202023Z 21014KT 14/M03 A301 RMK A01 T01421027  RH  031%=      5-min Rain = 0
KAI1 202024Z 22013KT 14/M03 A301 RMK A01 T01421028  RH  031%=      5-min Rain = 0
KAI1 202025Z 22014KT 14/M02 A301 RMK A01 T01441024  RH  031%=      5-min Rain = 0
KAI1 202026Z 21016KT 15/M03 A3009 RMK A01 T01471026  RH  030%=      5-min Rain = 0
KAI1 202027Z 22013KT 15/M03 A3009 RMK A01 T01471028  RH  030%=      5-min Rain = 0
KAI1 202028Z 22014KT 15/M03 A3009 RMK A01 T01461027  RH  030%=      5-min Rain = 0
KAI1 202029Z 22017KT 15/M03 A3009 RMK A01 T01461028  RH  030%=      5-min Rain = 0
KAI1 202030Z 22016KT 15/M03 A3009 RMK A01 T01451029  RH  030%=      5-min Rain = 0
KAI1 202031Z 22013KT 15/M03 A3009 RMK A01 T01451030  RH  030%=      5-min Rain = 0
KAI1 202032Z 22013KT 14/M03 A3009 RMK A01 T01441028  RH  030%=      5-min Rain = 0
KAI1 202033Z 22013KT 15/M03 A3009 RMK A01 T01451028  RH  030%=      5-min Rain = 0
KAI1 202034Z 21014KT 15/M03 A3009 RMK A01 T01461027  RH  030%=      5-min Rain = 0
KAI1 202035Z 21016KT 15/M03 A3009 RMK A01 T01451029  RH  030%=      5-min Rain = 0
KAI1 202036Z 21016KT 14/M03 A3009 RMK A01 T01441029  RH  030%=      5-min Rain = 0
KAI1 202037Z 22013KT 15/M03 A3009 RMK A01 T01451029  RH  030%=      5-min Rain = 0
KAI1 202038Z 22012KT 15/M03 A3009 RMK A01 T01461028  RH  030%=      5-min Rain = 0
KAI1 202039Z 22015KT 15/M03 A3009 RMK A01 T01491026  RH  030%=      5-min Rain = 0
KAI1 202040Z 21015KT 15/M03 A3009 RMK A01 T01501028  RH  029%=      5-min Rain = 0
KAI1 202041Z 22016KT 15/M03 A3009 RMK A01 T01501027  RH  029%=      5-min Rain = 0
KAI1 202042Z 22017KT 15/M03 A3009 RMK A01 T01491029  RH  029%=      5-min Rain = 0
KAI1 202043Z 22017KT 15/M03 A3009 RMK A01 T01481030  RH  029%=      5-min Rain = 0
KAI1 202044Z 23014KT 15/M03 A3009 RMK A01 T01481030  RH  029%=      5-min Rain = 0
KAI1 202045Z 22012KT 15/M03 A3009 RMK A01 T01501027  RH  029%=      5-min Rain = 0
KAI1 202046Z 22016KT 15/M03 A3009 RMK A01 T01521027  RH  029%=      5-min Rain = 0
KAI1 202047Z 22016KT 15/M03 A3009 RMK A01 T01521029  RH  029%=      5-min Rain = 0
KAI1 202048Z 23012KT 15/M03 A3009 RMK A01 T01501031  RH  029%=      5-min Rain = 0
KAI1 202049Z 22012KT 15/M03 A3009 RMK A01 T01501028  RH  029%=      5-min Rain = 0
KAI1 202050Z 22014KT 15/M03 A3009 RMK A01 T01521026  RH  029%=      5-min Rain = 0
KAI1 202051Z 21014KT 15/M03 A3008 RMK A01 T01531028  RH  029%=      5-min Rain = 0
KAI1 202052Z 21012KT 15/M03 A3008 RMK A01 T01521027  RH  029%=      5-min Rain = 0
KAI1 202053Z 20013KT 15/M03 A3008 RMK A01 T01521028  RH  029%=      5-min Rain = 0
KAI1 202054Z 20012KT 15/M03 A3008 RMK A01 T01521027  RH  029%=      5-min Rain = 0
KAI1 202055Z 21014KT 15/M03 A3008 RMK A01 T01521026  RH  029%=      5-min Rain = 0
KAI1 202056Z 22015KT 16/M03 A3008 RMK A01 T01551025  RH  029%=      5-min Rain = 0
KAI1 202057Z 23014KT 16/M03 A3008 RMK A01 T01561029  RH  028%=      5-min Rain = 0
KAI1 202058Z 23015KT 16/M03 A3008 RMK A01 T01551030  RH  028%=      5-min Rain = 0
KAI1 202059Z 23013KT 15/M03 A3008 RMK A01 T01541030  RH  028%=      5-min Rain = 0
KAI1 202100Z 22013KT 15/M03 A3008 RMK A01 T01541027  RH  029%=      5-min Rain = 0
KAI1 202101Z 22015KT 15/M03 A3008 RMK A01 T01541030  RH  028%=      5-min Rain = 0
KAI1 202102Z 22016KT 15/M03 A3008 RMK A01 T01531031  RH  028%=      5-min Rain = 0
KAI1 202103Z 21013KT 15/M03 A3008 RMK A01 T01521032  RH  028%=      5-min Rain = 0
KAI1 202104Z 22012KT 15/M03 A3008 RMK A01 T01511031  RH  028%=      5-min Rain = 0
KAI1 202105Z 21013KT 15/M03 A3008 RMK A01 T01541027  RH  029%=      5-min Rain = 0
KAI1 202106Z 21013KT 16/M03 A3008 RMK A01 T01551028  RH  028%=      5-min Rain = 0
KAI1 202107Z 20014KT 16/M03 A3008 RMK A01 T01561028  RH  028%=      5-min Rain = 0
KAI1 202108Z 20011KT 15/M03 A3008 RMK A01 T01541026  RH  029%=      5-min Rain = 0
KAI1 202109Z 21015KT 15/M03 A3007 RMK A01 T01541028  RH  028%=      5-min Rain = 0
KAI1 202110Z 21014KT 15/M03 A3007 RMK A01 T01521031  RH  028%=      5-min Rain = 0
KAI1 202111Z 21012KT 15/M03 A3007 RMK A01 T01511030  RH  029%=      5-min Rain = 0
KAI1 202112Z 20014KT 15/M03 A3007 RMK A01 T01521026  RH  029%=      5-min Rain = 0
KAI1 202113Z 20014KT 15/M03 A3007 RMK A01 T01531028  RH  029%=      5-min Rain = 0
KAI1 202114Z 22012KT 15/M03 A3007 RMK A01 T01541027  RH  029%=      5-min Rain = 0
KAI1 202115Z 20013KT 16/M03 A3007 RMK A01 T01561026  RH  029%=      5-min Rain = 0
KAI1 202116Z 20013KT 16/M03 A3007 RMK A01 T01571026  RH  028%=      5-min Rain = 0
KAI1 202117Z 21014KT 16/M03 A3007 RMK A01 T01561027  RH  028%=      5-min Rain = 0
KAI1 202118Z 21011KT 16/M03 A3007 RMK A01 T01551028  RH  028%=      5-min Rain = 0
KAI1 202119Z 20011KT 16/M03 A3007 RMK A01 T01551027  RH  029%=      5-min Rain = 0
KAI1 202120Z 19015KT 15/M03 A3007 RMK A01 T01541029  RH  028%=      5-min Rain = 0
KAI1 202121Z 19013KT 15/M03 A3007 RMK A01 T01541028  RH  028%=      5-min Rain = 0
KAI1 202122Z 19013KT 15/M03 A3007 RMK A01 T01541026  RH  029%=      5-min Rain = 0
KAI1 202123Z 20014KT 16/M03 A3007 RMK A01 T01551027  RH  028%=      5-min Rain = 0
KAI1 202124Z 19013KT 15/M03 A3007 RMK A01 T01541029  RH  028%=      5-min Rain = 0
KAI1 202125Z 20013KT 15/M03 A3007 RMK A01 T01541028  RH  029%=      5-min Rain = 0
KAI1 202126Z 21013KT 15/M03 A3007 RMK A01 T01531030  RH  028%=      5-min Rain = 0
KAI1 202127Z 19013KT 15/M03 A3007 RMK A01 T01541029  RH  028%=      5-min Rain = 0
KAI1 202128Z 20014KT 16/M03 A3007 RMK A01 T01551029  RH  028%=      5-min Rain = 0
KAI1 202129Z 20014KT 16/M03 A3007 RMK A01 T01561029  RH  028%=      5-min Rain = 0
KAI1 202130Z 21014KT 16/M03 A3007 RMK A01 T01561030  RH  028%=      5-min Rain = 0
KAI1 202131Z 20013KT 16/M03 A3007 RMK A01 T01571030  RH  028%=      5-min Rain = 0
KAI1 202132Z 20012KT 16/M03 A3007 RMK A01 T01591029  RH  027%=      5-min Rain = 0
KAI1 202133Z 20015KT 16/M03 A3007 RMK A01 T01591030  RH  027%=      5-min Rain = 0
KAI1 202134Z 20015KT 16/M03 A3007 RMK A01 T01591030  RH  027%=      5-min Rain = 0
KAI1 202135Z 21013KT 16/M03 A3007 RMK A01 T01571033  RH  027%=      5-min Rain = 0
KAI1 202136Z 21012KT 16/M03 A3007 RMK A01 T01561034  RH  027%=      5-min Rain = 0
KAI1 202137Z 20014KT 16/M03 A3007 RMK A01 T01571032  RH  027%=      5-min Rain = 0
KAI1 202138Z 20013KT 16/M03 A3007 RMK A01 T01581033  RH  027%=      5-min Rain = 0
KAI1 202139Z 19011KT 16/M03 A3007 RMK A01 T01601031  RH  027%=      5-min Rain = 0
KAI1 202140Z 20010KT 16/M03 A3007 RMK A01 T01611028  RH  027%=      5-min Rain = 0
KAI1 202141Z 19011KT 16/M03 A3007 RMK A01 T01631027  RH  027%=      5-min Rain = 0
KAI1 202142Z 21011KT 16/M03 A3007 RMK A01 T01641031  RH  026%=      5-min Rain = 0
KAI1 202143Z 21014KT 16/M03 A3007 RMK A01 T01641032  RH  026%=      5-min Rain = 0
KAI1 202144Z 20014KT 16/M03 A3007 RMK A01 T01641033  RH  026%=      5-min Rain = 0
KAI1 202145Z 20011KT 16/M03 A3007 RMK A01 T01631033  RH  026%=      5-min Rain = 0
KAI1 202146Z 20012KT 16/M03 A3007 RMK A01 T01631032  RH  026%=      5-min Rain = 0
KAI1 202147Z 20012KT 16/M03 A3006 RMK A01 T01631032  RH  026%=      5-min Rain = 0
KAI1 202148Z 19013KT 17/M03 A3006 RMK A01 T01651033  RH  026%=      5-min Rain = 0
KAI1 202149Z 19011KT 17/M03 A3006 RMK A01 T01651033  RH  026%=      5-min Rain = 0
KAI1 202150Z 19011KT 16/M03 A3006 RMK A01 T01641031  RH  026%=      5-min Rain = 0
KAI1 202151Z 19013KT 17/M03 A3006 RMK A01 T01651032  RH  026%=      5-min Rain = 0
KAI1 202152Z 19011KT 17/M03 A3006 RMK A01 T01651032  RH  026%=      5-min Rain = 0
KAI1 202153Z 20015KT 17/M03 A3006 RMK A01 T01661033  RH  025%=      5-min Rain = 0
KAI1 202154Z 19013KT 17/M04 A3006 RMK A01 T01671036  RH  025%=      5-min Rain = 0
KAI1 202155Z 20013KT 17/M03 A3006 RMK A01 T01671034  RH  025%=      5-min Rain = 0
KAI1 202156Z 21014KT 17/M04 A3006 RMK A01 T01691035  RH  025%=      5-min Rain = 0
KAI1 202157Z 21014KT 17/M04 A3006 RMK A01 T01701036  RH  024%=      5-min Rain = 0
KAI1 202158Z 20015KT 17/M04 A3006 RMK A01 T01701037  RH  024%=      5-min Rain = 0
KAI1 202159Z 21014KT 17/M04 A3006 RMK A01 T01711038  RH  024%=      5-min Rain = 0
KAI1 202200Z 21014G21KT 17/M04 A3006 RMK A01 T01711037  RH  024%=      5-min Rain = 0
KAI1 202201Z 20017KT 17/M04 A3006 RMK A01 T01721039  RH  024%=      5-min Rain = 0
KAI1 202202Z 20018KT 17/M04 A3006 RMK A01 T01711039  RH  023%=      5-min Rain = 0
KAI1 202203Z 20016KT 17/M04 A3006 RMK A01 T01711039  RH  023%=      5-min Rain = 0
KAI1 202204Z 19014KT 17/M04 A3006 RMK A01 T01721038  RH  024%=      5-min Rain = 0
KAI1 202205Z 20012KT 17/M04 A3006 RMK A01 T01721039  RH  023%=      5-min Rain = 0
KAI1 202206Z 21013KT 17/M04 A3006 RMK A01 T01721039  RH  023%=      5-min Rain = 0
KAI1 202207Z 21014KT 17/M04 A3006 RMK A01 T01741038  RH  023%=      5-min Rain = 0
KAI1 202208Z 21013KT 18/M04 A3006 RMK A01 T01751039  RH  023%=      5-min Rain = 0
KAI1 202209Z 21013KT 18/M04 A3006 RMK A01 T01751040  RH  023%=      5-min Rain = 0
KAI1 202210Z 20015KT 18/M04 A3006 RMK A01 T01761038  RH  023%=      5-min Rain = 0
KAI1 202211Z 21016KT 18/M04 A3006 RMK A01 T01771041  RH  022%=      5-min Rain = 0
KAI1 202212Z 20013KT 18/M04 A3006 RMK A01 T01761041  RH  022%=      5-min Rain = 0
KAI1 202213Z 20013KT 18/M04 A3006 RMK A01 T01771039  RH  023%=      5-min Rain = 0
KAI1 202214Z 21015KT 18/M04 A3006 RMK A01 T01791040  RH  022%=      5-min Rain = 0
KAI1 202215Z 21014KT 18/M04 A3006 RMK A01 T01781042  RH  022%=      5-min Rain = 0
KAI1 202216Z 20014KT 18/M04 A3005 RMK A01 T01781041  RH  022%=      5-min Rain = 0
KAI1 202217Z 19014KT 18/M04 A3005 RMK A01 T01771040  RH  023%=      5-min Rain = 0
KAI1 202218Z 20013KT 18/M04 A3005 RMK A01 T01761038  RH  023%=      5-min Rain = 0
KAI1 202219Z 19013KT 18/M04 A3005 RMK A01 T01761039  RH  023%=      5-min Rain = 0
KAI1 202220Z 19015KT 18/M04 A3005 RMK A01 T01761037  RH  023%=      5-min Rain = 0
KAI1 202221Z 18013KT 17/M04 A3005 RMK A01 T01741035  RH  024%=      5-min Rain = 0
KAI1 202222Z 18015KT 17/M03 A3005 RMK A01 T01731031  RH  025%=      5-min Rain = 0
KAI1 202223Z 18014KT 17/M03 A3005 RMK A01 T01721034  RH  024%=      5-min Rain = 0
KAI1 202224Z 18014KT 17/M03 A3005 RMK A01 T01711034  RH  024%=      5-min Rain = 0
KAI1 202225Z 18014KT 17/M04 A3005 RMK A01 T01701035  RH  024%=      5-min Rain = 0
KAI1 202226Z 17012KT 17/M03 A3005 RMK A01 T01701033  RH  025%=      5-min Rain = 0
KAI1 202227Z 17014KT 17/M03 A3005 RMK A01 T01701031  RH  025%=      5-min Rain = 0
KAI1 202228Z 17013KT 17/M03 A3005 RMK A01 T01701030  RH  025%=      5-min Rain = 0
KAI1 202229Z 17013KT 17/M03 A3005 RMK A01 T01691032  RH  025%=      5-min Rain = 0
KAI1 202230Z 17011KT 17/M03 A3005 RMK A01 T01691033  RH  025%=      5-min Rain = 0
KAI1 202231Z 17012KT 17/M03 A3005 RMK A01 T01681033  RH  025%=      5-min Rain = 0
KAI1 202232Z 18013KT 17/M03 A3005 RMK A01 T01681032  RH  025%=      5-min Rain = 0
KAI1 202233Z 18014KT 17/M04 A3005 RMK A01 T01701035  RH  024%=      5-min Rain = 0
KAI1 202234Z 19013KT 17/M03 A3005 RMK A01 T01711034  RH  025%=      5-min Rain = 0
KAI1 202235Z 22008KT 17/M03 A3006 RMK A01 T01731034  RH  024%=      5-min Rain = 0
KAI1 202236Z 22011KT 18/M04 A3005 RMK A01 T01761036  RH  023%=      5-min Rain = 0
KAI1 202237Z 22013KT 18/M04 A3005 RMK A01 T01781038  RH  023%=      5-min Rain = 0
KAI1 202238Z 22013KT 18/M04 A3005 RMK A01 T01781039  RH  022%=      5-min Rain = 0
KAI1 202239Z 21013KT 18/M04 A3006 RMK A01 T01781039  RH  022%=      5-min Rain = 0
KAI1 202240Z 20013KT 18/M04 A3006 RMK A01 T01781042  RH  022%=      5-min Rain = 0
KAI1 202241Z 21011KT 18/M04 A3006 RMK A01 T01781042  RH  022%=      5-min Rain = 0
KAI1 202242Z 20009KT 18/M04 A3005 RMK A01 T01781039  RH  022%=      5-min Rain = 0
KAI1 202243Z 20011KT 18/M04 A3005 RMK A01 T01791038  RH  023%=      5-min Rain = 0
KAI1 202244Z 19013KT 18/M04 A3005 RMK A01 T01781040  RH  022%=      5-min Rain = 0
KAI1 202245Z 20015KT 18/M04 A3005 RMK A01 T01771039  RH  023%=      5-min Rain = 0
KAI1 202246Z 20013KT 18/M04 A3005 RMK A01 T01761040  RH  023%=      5-min Rain = 0
KAI1 202247Z 20013KT 18/M04 A3005 RMK A01 T01761040  RH  023%=      5-min Rain = 0
KAI1 202248Z 20013KT 18/M04 A3005 RMK A01 T01761040  RH  023%=      5-min Rain = 0
KAI1 202249Z 20014KT 18/M04 A3005 RMK A01 T01771042  RH  022%=      5-min Rain = 0
KAI1 202250Z 20013KT 18/M04 A3005 RMK A01 T01771042  RH  022%=      5-min Rain = 0
KAI1 202251Z 20014KT 18/M04 A3005 RMK A01 T01771040  RH  022%=      5-min Rain = 0
KAI1 202252Z 20014KT 18/M04 A3005 RMK A01 T01761042  RH  022%=      5-min Rain = 0
KAI1 202253Z 20012KT 18/M04 A3005 RMK A01 T01751041  RH  023%=      5-min Rain = 0
KAI1 202254Z 20013KT 18/M04 A3005 RMK A01 T01751041  RH  023%=      5-min Rain = 0
KAI1 202255Z 20010KT 18/M04 A3005 RMK A01 T01751040  RH  023%=      5-min Rain = 0
KAI1 202256Z 20012KT 18/M04 A3005 RMK A01 T01751038  RH  023%=      5-min Rain = 0
KAI1 202257Z 21013KT 18/M04 A3005 RMK A01 T01751040  RH  023%=      5-min Rain = 0
KAI1 202258Z 20014KT 18/M04 A3005 RMK A01 T01751042  RH  022%=      5-min Rain = 0
KAI1 202259Z 20012KT 17/M04 A3005 RMK A01 T01731043  RH  023%=      5-min Rain = 0
KAI1 202300Z 20013KT 17/M04 A3005 RMK A01 T01721043  RH  023%=      5-min Rain = 0
KAI1 202301Z 20014KT 17/M04 A3005 RMK A01 T01711042  RH  023%=      5-min Rain = 0
KAI1 202302Z 19014KT 17/M04 A3005 RMK A01 T01701043  RH  023%=      5-min Rain = 0
KAI1 202303Z 20014KT 17/M04 A3005 RMK A01 T01691043  RH  023%=      5-min Rain = 0
KAI1 202304Z 21012G17KT 17/M04 A3005 RMK A01 T01691043  RH  023%=      5-min Rain = 0
KAI1 202305Z 21010KT 17/M04 A3005 RMK A01 T01701043  RH  023%=      5-min Rain = 0
KAI1 202306Z 21012KT 17/M04 A3005 RMK A01 T01701043  RH  023%=      5-min Rain = 0
KAI1 202307Z 21011KT 17/M04 A3005 RMK A01 T01701043  RH  023%=      5-min Rain = 0
KAI1 202308Z 21011KT 17/M04 A3005 RMK A01 T01691044  RH  023%=      5-min Rain = 0
KAI1 202309Z 21009KT 17/M04 A3005 RMK A01 T01681044  RH  023%=      5-min Rain = 0
KAI1 202310Z 21010KT 17/M05 A3005 RMK A01 T01661045  RH  023%=      5-min Rain = 0
KAI1 202311Z 21010KT 17/M05 A3005 RMK A01 T01651045  RH  023%=      5-min Rain = 0
KAI1 202312Z 21011KT 17/M05 A3005 RMK A01 T01651045  RH  023%=      5-min Rain = 0
KAI1 202313Z 21010KT 17/M05 A3005 RMK A01 T01661045  RH  023%=      5-min Rain = 0
KAI1 202314Z 21013KT 17/M04 A3005 RMK A01 T01671044  RH  023%=      5-min Rain = 0
KAI1 202315Z 20016KT 17/M05 A3004 RMK A01 T01671045  RH  023%=      5-min Rain = 0
KAI1 202316Z 20015KT 17/M05 A3005 RMK A01 T01661045  RH  023%=      5-min Rain = 0
KAI1 202317Z 20015KT 17/M04 A3004 RMK A01 T01651044  RH  023%=      5-min Rain = 0
KAI1 202318Z 20014KT 16/M04 A3005 RMK A01 T01641044  RH  024%=      5-min Rain = 0
KAI1 202319Z 20014KT 16/M04 A3004 RMK A01 T01621044  RH  024%=      5-min Rain = 0
KAI1 202320Z 20015KT 16/M04 A3004 RMK A01 T01601044  RH  024%=      5-min Rain = 0
KAI1 202321Z 20013KT 16/M04 A3004 RMK A01 T01591044  RH  024%=      5-min Rain = 0
KAI1 202322Z 20014KT 16/M04 A3004 RMK A01 T01571043  RH  025%=      5-min Rain = 0
KAI1 202323Z 20013KT 16/M04 A3004 RMK A01 T01561043  RH  025%=      5-min Rain = 0
KAI1 202324Z 20011KT 16/M04 A3005 RMK A01 T01551043  RH  025%=      5-min Rain = 0
KAI1 202325Z 19012KT 15/M04 A3005 RMK A01 T01541042  RH  026%=      5-min Rain = 0
KAI1 202326Z 20012KT 15/M04 A3005 RMK A01 T01531042  RH  026%=      5-min Rain = 0
KAI1 202327Z 19012KT 15/M04 A3005 RMK A01 T01521042  RH  026%=      5-min Rain = 0
KAI1 202328Z 19012KT 15/M04 A3004 RMK A01 T01511042  RH  026%=      5-min Rain = 0
KAI1 202329Z 19013KT 15/M04 A3004 RMK A01 T01501043  RH  026%=      5-min Rain = 0
KAI1 202330Z 19013KT 15/M04 A3004 RMK A01 T01491042  RH  026%=      5-min Rain = 0
KAI1 202331Z 20014KT 15/M04 A3004 RMK A01 T01471042  RH  027%=      5-min Rain = 0
KAI1 202332Z 19012KT 15/M04 A3004 RMK A01 T01461043  RH  027%=      5-min Rain = 0
KAI1 202333Z 19012KT 15/M04 A3004 RMK A01 T01461042  RH  027%=      5-min Rain = 0
KAI1 202334Z 19013KT 14/M04 A3004 RMK A01 T01441042  RH  027%=      5-min Rain = 0
KAI1 202335Z 19013KT 14/M04 A3004 RMK A01 T01431043  RH  027%=      5-min Rain = 0
KAI1 202336Z 19013KT 14/M04 A3004 RMK A01 T01431042  RH  027%=      5-min Rain = 0
KAI1 202337Z 19012KT 14/M04 A3004 RMK A01 T01431042  RH  028%=      5-min Rain = 0
KAI1 202338Z 19011KT 14/M04 A3004 RMK A01 T01411042  RH  028%=      5-min Rain = 0
KAI1 202339Z 19012KT 14/M04 A3004 RMK A01 T01401042  RH  028%=      5-min Rain = 0
KAI1 202340Z 19011KT 14/M04 A3004 RMK A01 T01381042  RH  028%=      5-min Rain = 0
KAI1 202341Z 19011KT 14/M04 A3004 RMK A01 T01371042  RH  029%=      5-min Rain = 0
KAI1 202342Z 19012KT 14/M04 A3004 RMK A01 T01361042  RH  029%=      5-min Rain = 0
KAI1 202343Z 19012KT 14/M04 A3004 RMK A01 T01351041  RH  029%=      5-min Rain = 0
KAI1 202344Z 19011KT 13/M04 A3004 RMK A01 T01341041  RH  029%=      5-min Rain = 0
KAI1 202345Z 19012KT 13/M04 A3004 RMK A01 T01341041  RH  029%=      5-min Rain = 0
KAI1 202346Z 19012KT 13/M04 A3004 RMK A01 T01331042  RH  029%=      5-min Rain = 0
KAI1 202347Z 19011KT 13/M04 A3004 RMK A01 T01331041  RH  030%=      5-min Rain = 0
KAI1 202348Z 19011KT 13/M04 A3004 RMK A01 T01321042  RH  030%=      5-min Rain = 0
KAI1 202349Z 19011KT 13/M04 A3004 RMK A01 T01311042  RH  030%=      5-min Rain = 0
KAI1 202350Z 19011KT 13/M04 A3004 RMK A01 T01301042  RH  030%=      5-min Rain = 0
KAI1 202351Z 18010KT 13/M04 A3004 RMK A01 T01281042  RH  030%=      5-min Rain = 0
KAI1 202352Z 19010KT 13/M04 A3004 RMK A01 T01271042  RH  031%=      5-min Rain = 0
KAI1 202353Z 18010KT 13/M04 A3004 RMK A01 T01261043  RH  031%=      5-min Rain = 0
KAI1 202354Z 18010KT 13/M04 A3004 RMK A01 T01251043  RH  031%=      5-min Rain = 0
KAI1 202355Z 18010KT 12/M04 A3004 RMK A01 T01231042  RH  031%=      5-min Rain = 0
KAI1 202356Z 19009KT 12/M04 A3004 RMK A01 T01231042  RH  031%=      5-min Rain = 0
KAI1 202357Z 19009KT 12/M04 A3004 RMK A01 T01211043  RH  032%=      5-min Rain = 0
KAI1 202358Z 18010KT 12/M04 A3004 RMK A01 T01201043  RH  032%=      5-min Rain = 0
KAI1 202359Z 18009KT 12/M04 A3004 RMK A01 T01201043  RH  032%=      5-min Rain = 0
KAI1 210000Z 18009KT 12/M04 A3004 RMK A01 T01191043  RH  032%=      5-min Rain = 0
KAI1 210001Z 18009KT 12/M04 A3004 RMK A01 T01171044  RH  032%=      5-min Rain = 0
KAI1 210002Z 18009KT 12/M04 A3004 RMK A01 T01151044  RH  033%=      5-min Rain = 0
KAI1 210003Z 18010KT 11/M04 A3004 RMK A01 T01141044  RH  033%=      5-min Rain = 0
KAI1 210004Z 18009KT 11/M04 A3004 RMK A01 T01141043  RH  033%=      5-min Rain = 0
KAI1 210005Z 18009KT 11/M04 A3004 RMK A01 T01121043  RH  033%=      5-min Rain = 0
KAI1 210006Z 18010KT 11/M04 A3004 RMK A01 T01111044  RH  033%=      5-min Rain = 0
KAI1 210007Z 18009KT 11/M05 A3004 RMK A01 T01091045  RH  034%=      5-min Rain = 0
KAI1 210008Z 18010KT 11/M05 A3004 RMK A01 T01081045  RH  034%=      5-min Rain = 0
KAI1 210009Z 18009KT 11/M05 A3004 RMK A01 T01071046  RH  034%=      5-min Rain = 0
KAI1 210010Z 18009KT 11/M05 A3004 RMK A01 T01061046  RH  034%=      5-min Rain = 0
KAI1 210011Z 18009KT 10/M05 A3004 RMK A01 T01041046  RH  035%=      5-min Rain = 0
KAI1 210012Z 18009KT 10/M05 A3004 RMK A01 T01031046  RH  035%=      5-min Rain = 0
KAI1 210013Z 18009KT 10/M05 A3004 RMK A01 T01011046  RH  035%=      5-min Rain = 0
KAI1 210014Z 18010KT 10/M05 A3004 RMK A01 T01001046  RH  036%=      5-min Rain = 0
KAI1 210015Z 18010KT 10/M05 A3004 RMK A01 T00991046  RH  036%=      5-min Rain = 0
KAI1 210016Z 18010KT 10/M05 A3004 RMK A01 T00971047  RH  036%=      5-min Rain = 0
KAI1 210017Z 18010KT 10/M05 A3004 RMK A01 T00961047  RH  036%=      5-min Rain = 0
KAI1 210018Z 18010KT 10/M05 A3004 RMK A01 T00951047  RH  036%=      5-min Rain = 0
KAI1 210019Z 18010KT 09/M05 A3004 RMK A01 T00941047  RH  037%=      5-min Rain = 0
KAI1 210020Z 18010KT 09/M05 A3004 RMK A01 T00931047  RH  037%=      5-min Rain = 0
KAI1 210021Z 18010KT 09/M05 A3004 RMK A01 T00911047  RH  037%=      5-min Rain = 0
KAI1 210022Z 18010KT 09/M05 A3004 RMK A01 T00911047  RH  037%=      5-min Rain = 0
KAI1 210023Z 18010KT 09/M05 A3004 RMK A01 T00901047  RH  038%=      5-min Rain = 0
KAI1 210024Z 18010KT 09/M05 A3004 RMK A01 T00891047  RH  038%=      5-min Rain = 0
KAI1 210025Z 18010KT 09/M05 A3004 RMK A01 T00881048  RH  038%=      5-min Rain = 0
KAI1 210026Z 18010KT 09/M05 A3004 RMK A01 T00871048  RH  038%=      5-min Rain = 0
KAI1 210027Z 18010KT 09/M05 A3004 RMK A01 T00871048  RH  038%=      5-min Rain = 0
KAI1 210028Z 18010KT 09/M05 A3004 RMK A01 T00861048  RH  038%=      5-min Rain = 0
KAI1 210029Z 18010KT 09/M05 A3004 RMK A01 T00861048  RH  038%=      5-min Rain = 0
KAI1 210030Z 18010KT 08/M05 A3004 RMK A01 T00841049  RH  039%=      5-min Rain = 0
KAI1 210031Z 18010KT 08/M05 A3004 RMK A01 T00841049  RH  039%=      5-min Rain = 0
KAI1 210032Z 18010KT 08/M05 A3004 RMK A01 T00831049  RH  039%=      5-min Rain = 0
KAI1 210033Z 18010KT 08/M05 A3004 RMK A01 T00821049  RH  039%=      5-min Rain = 0
KAI1 210034Z 18010KT 08/M05 A3004 RMK A01 T00811050  RH  039%=      5-min Rain = 0
KAI1 210035Z 18010KT 08/M05 A3004 RMK A01 T00801050  RH  039%=      5-min Rain = 0
KAI1 210036Z 18010KT 08/M05 A3004 RMK A01 T00791051  RH  039%=      5-min Rain = 0
KAI1 210037Z 18010KT 08/M05 A3004 RMK A01 T00781052  RH  039%=      5-min Rain = 0
KAI1 210038Z 18010KT 08/M05 A3004 RMK A01 T00771052  RH  040%=      5-min Rain = 0
KAI1 210039Z 18010KT 08/M05 A3004 RMK A01 T00771052  RH  040%=      5-min Rain = 0
KAI1 210040Z 18010KT 08/M05 A3004 RMK A01 T00771052  RH  040%=      5-min Rain = 0
KAI1 210041Z 18010KT 08/M05 A3004 RMK A01 T00761052  RH  040%=      5-min Rain = 0
KAI1 210042Z 18010KT 08/M05 A3004 RMK A01 T00761052  RH  040%=      5-min Rain = 0
KAI1 210043Z 18010KT 08/M05 A3004 RMK A01 T00761052  RH  040%=      5-min Rain = 0
KAI1 210044Z 18010KT 08/M05 A3004 RMK A01 T00751052  RH  040%=      5-min Rain = 0
KAI1 210045Z 18011KT 08/M05 A3004 RMK A01 T00751053  RH  040%=      5-min Rain = 0
KAI1 210046Z 18011KT 08/M05 A3004 RMK A01 T00751053  RH  040%=      5-min Rain = 0
KAI1 210047Z 18011KT 07/M05 A3004 RMK A01 T00741053  RH  040%=      5-min Rain = 0
KAI1 210048Z 18011KT 07/M05 A3004 RMK A01 T00741053  RH  040%=      5-min Rain = 0
KAI1 210049Z 18011KT 07/M05 A3004 RMK A01 T00741052  RH  040%=      5-min Rain = 0
KAI1 210050Z 18011KT 07/M05 A3004 RMK A01 T00731053  RH  040%=      5-min Rain = 0
KAI1 210051Z 18011KT 07/M05 A3004 RMK A01 T00731052  RH  040%=      5-min Rain = 0
KAI1 210052Z 18011KT 07/M05 A3004 RMK A01 T00731053  RH  040%=      5-min Rain = 0
KAI1 210053Z 18011KT 07/M05 A3004 RMK A01 T00731053  RH  040%=      5-min Rain = 0
KAI1 210054Z 18011KT 07/M05 A3004 RMK A01 T00731053  RH  040%=      5-min Rain = 0
KAI1 210055Z 18012KT 07/M05 A3004 RMK A01 T00731053  RH  040%=      5-min Rain = 0
KAI1 210056Z 18011KT 07/M05 A3004 RMK A01 T00731054  RH  040%=      5-min Rain = 0
KAI1 210057Z 18011KT 07/M05 A3004 RMK A01 T00731054  RH  040%=      5-min Rain = 0
KAI1 210058Z 18011KT 07/M05 A3004 RMK A01 T00731054  RH  040%=      5-min Rain = 0
KAI1 210059Z 18011KT 07/M05 A3004 RMK A01 T00721054  RH  040%=      5-min Rain = 0
KAI1 210100Z 18011KT 07/M05 A3004 RMK A01 T00721054  RH  040%=      5-min Rain = 0
KAI1 210101Z 18011KT 07/M05 A3004 RMK A01 T00731054  RH  040%=      5-min Rain = 0
KAI1 210102Z 18011KT 07/M05 A3004 RMK A01 T00741054  RH  040%=      5-min Rain = 0
KAI1 210103Z 18012KT 07/M05 A3004 RMK A01 T00741054  RH  040%=      5-min Rain = 0
KAI1 210104Z 18012KT 07/M06 A3004 RMK A01 T00741055  RH  040%=      5-min Rain = 0
KAI1 210105Z 18012KT 07/M06 A3004 RMK A01 T00731055  RH  040%=      5-min Rain = 0
KAI1 210106Z 18012KT 07/M06 A3004 RMK A01 T00731055  RH  040%=      5-min Rain = 0
KAI1 210107Z 18013KT 07/M06 A3004 RMK A01 T00721055  RH  040%=      5-min Rain = 0
KAI1 210108Z 18013KT 07/M06 A3004 RMK A01 T00731055  RH  040%=      5-min Rain = 0
KAI1 210109Z 18012KT 07/M06 A3004 RMK A01 T00741055  RH  039%=      5-min Rain = 0
KAI1 210110Z 18012KT 08/M06 A3004 RMK A01 T00751056  RH  039%=      5-min Rain = 0
KAI1 210111Z 18012KT 08/M06 A3004 RMK A01 T00751056  RH  039%=      5-min Rain = 0
KAI1 210112Z 18012KT 08/M06 A3004 RMK A01 T00751056  RH  039%=      5-min Rain = 0
KAI1 210113Z 18012KT 08/M06 A3004 RMK A01 T00751056  RH  039%=      5-min Rain = 0
KAI1 210114Z 18012KT 08/M06 A3004 RMK A01 T00751056  RH  039%=      5-min Rain = 0
KAI1 210115Z 17012KT 07/M06 A3004 RMK A01 T00741055  RH  039%=      5-min Rain = 0
KAI1 210116Z 18012KT 07/M06 A3004 RMK A01 T00731056  RH  039%=      5-min Rain = 0
KAI1 210117Z 18013KT 07/M06 A3004 RMK A01 T00731056  RH  040%=      5-min Rain = 0
KAI1 210118Z 18013KT 07/M06 A3004 RMK A01 T00731056  RH  040%=      5-min Rain = 0
KAI1 210119Z 18013KT 07/M06 A3004 RMK A01 T00731056  RH  039%=      5-min Rain = 0
KAI1 210120Z 18013KT 07/M06 A3004 RMK A01 T00731056  RH  039%=      5-min Rain = 0
KAI1 210121Z 18013KT 07/M06 A3004 RMK A01 T00731056  RH  039%=      5-min Rain = 0
KAI1 210122Z 18013KT 07/M06 A3004 RMK A01 T00721056  RH  039%=      5-min Rain = 0
KAI1 210123Z 18013KT 07/M06 A3004 RMK A01 T00721057  RH  039%=      5-min Rain = 0
KAI1 210124Z 18013KT 07/M06 A3004 RMK A01 T00721057  RH  039%=      5-min Rain = 0
KAI1 210125Z 18012KT 07/M06 A3004 RMK A01 T00721057  RH  039%=      5-min Rain = 0
KAI1 210126Z 18012KT 07/M06 A3004 RMK A01 T00721057  RH  039%=      5-min Rain = 0
KAI1 210127Z 17013KT 07/M06 A3004 RMK A01 T00731057  RH  039%=      5-min Rain = 0
KAI1 210128Z 18013KT 07/M06 A3004 RMK A01 T00731057  RH  039%=      5-min Rain = 0
KAI1 210129Z 18013KT 07/M06 A3003 RMK A01 T00731057  RH  039%=      5-min Rain = 0
KAI1 210130Z 18013KT 07/M06 A3003 RMK A01 T00731057  RH  039%=      5-min Rain = 0
KAI1 210131Z 18013KT 07/M06 A3003 RMK A01 T00731057  RH  039%=      5-min Rain = 0
KAI1 210132Z 18012KT 07/M06 A3003 RMK A01 T00731057  RH  039%=      5-min Rain = 0
KAI1 210133Z 18012KT 07/M06 A3003 RMK A01 T00731058  RH  039%=      5-min Rain = 0
KAI1 210134Z 18012KT 07/M06 A3003 RMK A01 T00721058  RH  039%=      5-min Rain = 0
KAI1 210135Z 18012KT 07/M06 A3003 RMK A01 T00721058  RH  039%=      5-min Rain = 0
KAI1 210136Z 18012KT 07/M06 A3003 RMK A01 T00721058  RH  039%=      5-min Rain = 0
KAI1 210137Z 18011KT 07/M06 A3003 RMK A01 T00731058  RH  039%=      5-min Rain = 0
KAI1 210138Z 18012KT 07/M06 A3003 RMK A01 T00741058  RH  039%=      5-min Rain = 0
KAI1 210139Z 18012KT 08/M06 A3003 RMK A01 T00751058  RH  038%=      5-min Rain = 0
KAI1 210140Z 18011KT 08/M06 A3003 RMK A01 T00751059  RH  038%=      5-min Rain = 0
KAI1 210141Z 18011KT 08/M06 A3003 RMK A01 T00751059  RH  038%=      5-min Rain = 0
KAI1 210142Z 18012KT 07/M06 A3003 RMK A01 T00741059  RH  038%=      5-min Rain = 0
KAI1 210143Z 18011KT 07/M06 A3003 RMK A01 T00741059  RH  038%=      5-min Rain = 0
KAI1 210144Z 18012KT 08/M06 A3003 RMK A01 T00751060  RH  038%=      5-min Rain = 0
KAI1 210145Z 18011KT 08/M06 A3003 RMK A01 T00751060  RH  038%=      5-min Rain = 0
KAI1 210146Z 18011KT 07/M06 A3003 RMK A01 T00741060  RH  038%=      5-min Rain = 0
KAI1 210147Z 18012KT 07/M06 A3003 RMK A01 T00741060  RH  038%=      5-min Rain = 0
KAI1 210148Z 19012KT 07/M06 A3003 RMK A01 T00741060  RH  038%=      5-min Rain = 0
KAI1 210149Z 18011KT 07/M06 A3003 RMK A01 T00731060  RH  038%=      5-min Rain = 0
KAI1 210150Z 18012KT 07/M06 A3003 RMK A01 T00721060  RH  038%=      5-min Rain = 0
KAI1 210151Z 18012KT 07/M06 A3003 RMK A01 T00721060  RH  038%=      5-min Rain = 0
KAI1 210152Z 18011KT 07/M06 A3003 RMK A01 T00721060  RH  038%=      5-min Rain = 0
KAI1 210153Z 18011KT 07/M06 A3003 RMK A01 T00721060  RH  039%=      5-min Rain = 0
KAI1 210154Z 18011KT 07/M06 A3003 RMK A01 T00701061  RH  039%=      5-min Rain = 0
KAI1 210155Z 18011KT 07/M06 A3003 RMK A01 T00691061  RH  039%=      5-min Rain = 0
KAI1 210156Z 18010KT 07/M06 A3003 RMK A01 T00681061  RH  039%=      5-min Rain = 0
KAI1 210157Z 18011KT 07/M06 A3003 RMK A01 T00661062  RH  040%=      5-min Rain = 0
KAI1 210158Z 18011KT 06/M06 A3003 RMK A01 T00641061  RH  040%=      5-min Rain = 0
KAI1 210159Z 18011KT 06/M06 A3003 RMK A01 T00631061  RH  041%=      5-min Rain = 0
KAI1 210200Z 18011KT 06/M06 A3003 RMK A01 T00621061  RH  041%=      5-min Rain = 0
KAI1 210201Z 18011KT 06/M06 A3003 RMK A01 T00611061  RH  041%=      5-min Rain = 0
KAI1 210202Z 18011KT 06/M06 A3003 RMK A01 T00631061  RH  041%=      5-min Rain = 0
KAI1 210203Z 18012KT 06/M06 A3003 RMK A01 T00641061  RH  040%=      5-min Rain = 0
KAI1 210204Z 18011KT 06/M06 A3003 RMK A01 T00641061  RH  040%=      5-min Rain = 0
KAI1 210205Z 18011KT 06/M06 A3003 RMK A01 T00641062  RH  040%=      5-min Rain = 0
KAI1 210206Z 18011KT 06/M06 A3003 RMK A01 T00641061  RH  040%=      5-min Rain = 0
KAI1 210207Z 18011KT 06/M06 A3003 RMK A01 T00631061  RH  041%=      5-min Rain = 0
KAI1 210208Z 18011KT 06/M06 A3003 RMK A01 T00621062  RH  041%=      5-min Rain = 0
KAI1 210209Z 18011KT 06/M06 A3003 RMK A01 T00611062  RH  041%=      5-min Rain = 0
KAI1 210210Z 18011KT 06/M06 A3003 RMK A01 T00601062  RH  041%=      5-min Rain = 0
KAI1 210211Z 18010KT 06/M06 A3003 RMK A01 T00591062  RH  042%=      5-min Rain = 0
KAI1 210212Z 18010KT 06/M06 A3003 RMK A01 T00581062  RH  042%=      5-min Rain = 0
KAI1 210213Z 18011KT 06/M06 A3003 RMK A01 T00571062  RH  042%=      5-min Rain = 0
KAI1 210214Z 18011KT 06/M06 A3003 RMK A01 T00571062  RH  042%=      5-min Rain = 0
KAI1 210215Z 18010KT 06/M06 A3003 RMK A01 T00561062  RH  042%=      5-min Rain = 0
KAI1 210216Z 18011KT 06/M06 A3003 RMK A01 T00551062  RH  042%=      5-min Rain = 0
KAI1 210217Z 18011KT 06/M06 A3002 RMK A01 T00551062  RH  043%=      5-min Rain = 0
KAI1 210218Z 18011KT 06/M06 A3002 RMK A01 T00551062  RH  043%=      5-min Rain = 0
KAI1 210219Z 18011KT 05/M06 A3002 RMK A01 T00541062  RH  043%=      5-min Rain = 0
KAI1 210220Z 18011KT 05/M06 A3002 RMK A01 T00541062  RH  043%=      5-min Rain = 0
KAI1 210221Z 18011KT 06/M06 A3002 RMK A01 T00551062  RH  043%=      5-min Rain = 0
KAI1 210222Z 18011KT 05/M06 A3002 RMK A01 T00541062  RH  043%=      5-min Rain = 0
KAI1 210223Z 18011KT 05/M06 A3002 RMK A01 T00541062  RH  043%=      5-min Rain = 0
KAI1 210224Z 18010KT 05/M06 A3002 RMK A01 T00531062  RH  043%=      5-min Rain = 0
KAI1 210225Z 17010KT 05/M06 A3002 RMK A01 T00531062  RH  043%=      5-min Rain = 0
KAI1 210226Z 18010KT 05/M06 A3002 RMK A01 T00531062  RH  043%=      5-min Rain = 0
KAI1 210227Z 18010KT 05/M06 A3002 RMK A01 T00521062  RH  043%=      5-min Rain = 0
KAI1 210228Z 17010KT 05/M06 A3002 RMK A01 T00521062  RH  044%=      5-min Rain = 0
KAI1 210229Z 17010KT 05/M06 A3002 RMK A01 T00511062  RH  044%=      5-min Rain = 0
KAI1 210230Z 17009KT 05/M06 A3002 RMK A01 T00511062  RH  044%=      5-min Rain = 0
KAI1 210231Z 17010KT 05/M06 A3002 RMK A01 T00511062  RH  044%=      5-min Rain = 0
KAI1 210232Z 17010KT 05/M06 A3002 RMK A01 T00511063  RH  044%=      5-min Rain = 0
KAI1 210233Z 17010KT 05/M06 A3002 RMK A01 T00511063  RH  044%=      5-min Rain = 0
KAI1 210234Z 17011KT 05/M06 A3002 RMK A01 T00511062  RH  044%=      5-min Rain = 0
KAI1 210235Z 18011KT 05/M06 A3002 RMK A01 T00521062  RH  043%=      5-min Rain = 0
KAI1 210236Z 18011KT 05/M06 A3002 RMK A01 T00521062  RH  043%=      5-min Rain = 0
KAI1 210237Z 18011KT 05/M06 A3002 RMK A01 T00531062  RH  043%=      5-min Rain = 0
KAI1 210238Z 18011KT 05/M06 A3002 RMK A01 T00531062  RH  043%=      5-min Rain = 0
KAI1 210239Z 18011KT 05/M06 A3002 RMK A01 T00531062  RH  043%=      5-min Rain = 0
KAI1 210240Z 18011KT 05/M06 A3002 RMK A01 T00531062  RH  043%=      5-min Rain = 0
KAI1 210241Z 18011KT 05/M06 A3002 RMK A01 T00531063  RH  043%=      5-min Rain = 0
KAI1 210242Z 18010KT 05/M06 A3002 RMK A01 T00531063  RH  043%=      5-min Rain = 0
KAI1 210243Z 18011KT 05/M06 A3002 RMK A01 T00531063  RH  043%=      5-min Rain = 0
KAI1 210244Z 18011KT 05/M06 A3002 RMK A01 T00521063  RH  043%=      5-min Rain = 0
KAI1 210245Z 18011KT 05/M06 A3002 RMK A01 T00511063  RH  043%=      5-min Rain = 0
KAI1 210246Z 18011KT 05/M06 A3002 RMK A01 T00511063  RH  043%=      5-min Rain = 0
KAI1 210247Z 18012KT 05/M06 A3002 RMK A01 T00521063  RH  043%=      5-min Rain = 0
KAI1 210248Z 18012KT 05/M06 A3002 RMK A01 T00531063  RH  043%=      5-min Rain = 0
KAI1 210249Z 18012KT 05/M06 A3002 RMK A01 T00531062  RH  043%=      5-min Rain = 0
KAI1 210250Z 18012KT 05/M06 A3002 RMK A01 T00531062  RH  043%=      5-min Rain = 0
KAI1 210251Z 18011KT 05/M06 A3002 RMK A01 T00511063  RH  043%=      5-min Rain = 0
KAI1 210252Z 18012KT 05/M06 A3002 RMK A01 T00501063  RH  044%=      5-min Rain = 0
KAI1 210253Z 18012KT 05/M06 A3002 RMK A01 T00501063  RH  044%=      5-min Rain = 0
KAI1 210254Z 18012KT 05/M06 A3002 RMK A01 T00501063  RH  044%=      5-min Rain = 0
KAI1 210255Z 18011KT 05/M06 A3002 RMK A01 T00501063  RH  044%=      5-min Rain = 0
KAI1 210256Z 18012KT 05/M06 A3002 RMK A01 T00491063  RH  044%=      5-min Rain = 0
KAI1 210257Z 18012KT 05/M06 A3002 RMK A01 T00501063  RH  044%=      5-min Rain = 0
KAI1 210258Z 18012KT 05/M06 A3002 RMK A01 T00501063  RH  044%=      5-min Rain = 0
KAI1 210259Z 18011KT 05/M06 A3002 RMK A01 T00501063  RH  044%=      5-min Rain = 0
KAI1 210300Z 18011KT 05/M06 A3002 RMK A01 T00501063  RH  044%=      5-min Rain = 0
KAI1 210301Z 18011KT 05/M06 A3002 RMK A01 T00491064  RH  044%=      5-min Rain = 0
KAI1 210302Z 18011KT 05/M06 A3002 RMK A01 T00491063  RH  044%=      5-min Rain = 0
KAI1 210303Z 19011KT 05/M06 A3002 RMK A01 T00491064  RH  044%=      5-min Rain = 0
KAI1 210304Z 19011KT 05/M06 A3002 RMK A01 T00481064  RH  044%=      5-min Rain = 0
KAI1 210305Z 19011KT 05/M06 A3002 RMK A01 T00471064  RH  044%=      5-min Rain = 0
KAI1 210306Z 19011KT 05/M06 A3002 RMK A01 T00461063  RH  045%=      5-min Rain = 0
KAI1 210307Z 19011KT 05/M06 A3002 RMK A01 T00451063  RH  045%=      5-min Rain = 0
KAI1 210308Z 19012KT 05/M06 A3002 RMK A01 T00451063  RH  045%=      5-min Rain = 0
KAI1 210309Z 19012KT 05/M06 A3002 RMK A01 T00451062  RH  045%=      5-min Rain = 0
KAI1 210310Z 19012KT 05/M06 A3002 RMK A01 T00471061  RH  045%=      5-min Rain = 0
KAI1 210311Z 19012KT 05/M06 A3002 RMK A01 T00481062  RH  045%=      5-min Rain = 0
KAI1 210312Z 19011KT 05/M06 A3002 RMK A01 T00491061  RH  045%=      5-min Rain = 0
KAI1 210313Z 19012KT 05/M06 A3002 RMK A01 T00501061  RH  045%=      5-min Rain = 0
KAI1 210314Z 19012KT 05/M06 A3002 RMK A01 T00501061  RH  045%=      5-min Rain = 0
KAI1 210315Z 19012KT 05/M06 A3001 RMK A01 T00511061  RH  044%=      5-min Rain = 0
KAI1 210316Z 18011KT 05/M06 A3001 RMK A01 T00501061  RH  045%=      5-min Rain = 0
KAI1 210317Z 18012KT 05/M06 A3001 RMK A01 T00511060  RH  045%=      5-min Rain = 0
KAI1 210318Z 18011KT 05/M06 A3001 RMK A01 T00511060  RH  045%=      5-min Rain = 0
KAI1 210319Z 18011KT 05/M06 A3001 RMK A01 T00511060  RH  045%=      5-min Rain = 0
KAI1 210320Z 18011KT 05/M06 A3001 RMK A01 T00511060  RH  045%=      5-min Rain = 0
KAI1 210321Z 18011KT 05/M06 A3001 RMK A01 T00511060  RH  045%=      5-min Rain = 0
KAI1 210322Z 18011KT 05/M06 A3001 RMK A01 T00501060  RH  045%=      5-min Rain = 0
KAI1 210323Z 18011KT 05/M06 A3001 RMK A01 T00501060  RH  045%=      5-min Rain = 0
KAI1 210324Z 18011KT 05/M06 A3001 RMK A01 T00481061  RH  045%=      5-min Rain = 0
KAI1 210325Z 18011KT 05/M06 A3001 RMK A01 T00481060  RH  045%=      5-min Rain = 0
KAI1 210326Z 18011KT 05/M06 A3001 RMK A01 T00471061  RH  046%=      5-min Rain = 0
KAI1 210327Z 18011KT 05/M06 A3001 RMK A01 T00461061  RH  046%=      5-min Rain = 0
KAI1 210328Z 18010KT 05/M06 A3001 RMK A01 T00461061  RH  046%=      5-min Rain = 0
KAI1 210329Z 18010KT 04/M06 A3001 RMK A01 T00441062  RH  046%=      5-min Rain = 0
KAI1 210330Z 18010KT 04/M06 A3001 RMK A01 T00431062  RH  047%=      5-min Rain = 0
KAI1 210331Z 18010KT 04/M06 A3001 RMK A01 T00411062  RH  047%=      5-min Rain = 0
KAI1 210332Z 18011KT 04/M06 A3001 RMK A01 T00411061  RH  047%=      5-min Rain = 0
KAI1 210333Z 18011KT 04/M06 A3001 RMK A01 T00411061  RH  047%=      5-min Rain = 0
KAI1 210334Z 18011KT 04/M06 A30 RMK A01 T00421060  RH  047%=      5-min Rain = 0
KAI1 210335Z 18011KT 04/M06 A30 RMK A01 T00441059  RH  047%=      5-min Rain = 0
KAI1 210336Z 18011KT 05/M06 A30 RMK A01 T00451059  RH  047%=      5-min Rain = 0
KAI1 210337Z 18011KT 05/M06 A30 RMK A01 T00451059  RH  047%=      5-min Rain = 0
KAI1 210338Z 18012KT 05/M06 A30 RMK A01 T00451059  RH  047%=      5-min Rain = 0
KAI1 210339Z 18011KT 05/M06 A30 RMK A01 T00461058  RH  047%=      5-min Rain = 0
KAI1 210340Z 18012KT 05/M06 A30 RMK A01 T00471058  RH  047%=      5-min Rain = 0
KAI1 210341Z 18011KT 05/M06 A30 RMK A01 T00471058  RH  047%=      5-min Rain = 0
KAI1 210342Z 18012KT 05/M06 A30 RMK A01 T00471057  RH  047%=      5-min Rain = 0
KAI1 210343Z 18012KT 05/M06 A30 RMK A01 T00471057  RH  047%=      5-min Rain = 0
KAI1 210344Z 18012KT 05/M06 A30 RMK A01 T00471057  RH  047%=      5-min Rain = 0
KAI1 210345Z 19012KT 05/M06 A30 RMK A01 T00481057  RH  047%=      5-min Rain = 0
KAI1 210346Z 18012KT 05/M06 A30 RMK A01 T00481056  RH  047%=      5-min Rain = 0
KAI1 210347Z 18012KT 05/M06 A30 RMK A01 T00481056  RH  047%=      5-min Rain = 0
KAI1 210348Z 18012KT 05/M06 A30 RMK A01 T00481056  RH  047%=      5-min Rain = 0
KAI1 210349Z 19011KT 05/M06 A30 RMK A01 T00481056  RH  047%=      5-min Rain = 0
KAI1 210350Z 18012KT 05/M06 A30 RMK A01 T00481056  RH  047%=      5-min Rain = 0
KAI1 210351Z 18012KT 05/M06 A30 RMK A01 T00481056  RH  047%=      5-min Rain = 0
KAI1 210352Z 19011KT 05/M06 A30 RMK A01 T00481056  RH  047%=      5-min Rain = 0
KAI1 210353Z 18011KT 05/M06 A30 RMK A01 T00481056  RH  047%=      5-min Rain = 0
KAI1 210354Z 18012KT 05/M06 A30 RMK A01 T00481056  RH  047%=      5-min Rain = 0
KAI1 210355Z 18012KT 05/M06 A30 RMK A01 T00481056  RH  047%=      5-min Rain = 0
KAI1 210356Z 18011KT 05/M06 A30 RMK A01 T00481056  RH  047%=      5-min Rain = 0
KAI1 210357Z 18012KT 05/M06 A30 RMK A01 T00491056  RH  047%=      5-min Rain = 0
KAI1 210358Z 18012KT 05/M06 A30 RMK A01 T00491056  RH  047%=      5-min Rain = 0
KAI1 210359Z 18011KT 05/M06 A30 RMK A01 T00491056  RH  047%=      5-min Rain = 0
KAI1 210400Z 18011KT 05/M06 A30 RMK A01 T00491056  RH  047%=      5-min Rain = 0
KAI1 210401Z 18012KT 05/M06 A30 RMK A01 T00481056  RH  047%=      5-min Rain = 0
KAI1 210402Z 18011KT 05/M06 A2999 RMK A01 T00481055  RH  047%=      5-min Rain = 0
KAI1 210403Z 18011KT 05/M06 A2999 RMK A01 T00471056  RH  047%=      5-min Rain = 0
KAI1 210404Z 18011KT 05/M06 A2999 RMK A01 T00461056  RH  047%=      5-min Rain = 0
KAI1 210405Z 18011KT 05/M06 A2999 RMK A01 T00461056  RH  048%=      5-min Rain = 0
KAI1 210406Z 18011KT 05/M06 A2999 RMK A01 T00451056  RH  048%=      5-min Rain = 0
KAI1 210407Z 18011KT 04/M06 A2999 RMK A01 T00441056  RH  048%=      5-min Rain = 0
KAI1 210408Z 18011KT 04/M06 A30 RMK A01 T00441056  RH  048%=      5-min Rain = 0
KAI1 210409Z 18010KT 04/M06 A2999 RMK A01 T00431057  RH  048%=      5-min Rain = 0
KAI1 210410Z 18011KT 04/M06 A2999 RMK A01 T00421056  RH  049%=      5-min Rain = 0
KAI1 210411Z 18011KT 04/M06 A2999 RMK A01 T00411056  RH  049%=      5-min Rain = 0
KAI1 210412Z 18011KT 04/M06 A30 RMK A01 T00411056  RH  049%=      5-min Rain = 0
KAI1 210413Z 18011KT 04/M06 A30 RMK A01 T00411057  RH  049%=      5-min Rain = 0
KAI1 210414Z 18010KT 04/M06 A30 RMK A01 T00401057  RH  049%=      5-min Rain = 0
KAI1 210415Z 18010KT 04/M06 A30 RMK A01 T00381057  RH  050%=      5-min Rain = 0
KAI1 210416Z 18010KT 04/M06 A30 RMK A01 T00381057  RH  050%=      5-min Rain = 0
KAI1 210417Z 18011KT 04/M06 A30 RMK A01 T00381056  RH  050%=      5-min Rain = 0
KAI1 210418Z 18011KT 04/M06 A30 RMK A01 T00381056  RH  050%=      5-min Rain = 0
KAI1 210419Z 18011KT 04/M06 A30 RMK A01 T00391056  RH  050%=      5-min Rain = 0
KAI1 210420Z 18012KT 04/M06 A30 RMK A01 T00401056  RH  050%=      5-min Rain = 0
KAI1 210421Z 18011KT 04/M06 A30 RMK A01 T00401056  RH  050%=      5-min Rain = 0
KAI1 210422Z 18011KT 04/M06 A30 RMK A01 T00401056  RH  050%=      5-min Rain = 0
KAI1 210423Z 18011KT 04/M06 A30 RMK A01 T00401056  RH  050%=      5-min Rain = 0
KAI1 210424Z 18012KT 04/M06 A30 RMK A01 T00411056  RH  049%=      5-min Rain = 0
KAI1 210425Z 18012KT 04/M06 A30 RMK A01 T00421055  RH  049%=      5-min Rain = 0
KAI1 210426Z 19012KT 04/M06 A30 RMK A01 T00431056  RH  049%=      5-min Rain = 0
KAI1 210427Z 19012KT 04/M06 A30 RMK A01 T00431056  RH  049%=      5-min Rain = 0
KAI1 210428Z 18012KT 04/M06 A30 RMK A01 T00441055  RH  049%=      5-min Rain = 0
KAI1 210429Z 18012KT 04/M06 A30 RMK A01 T00431056  RH  049%=      5-min Rain = 0
KAI1 210430Z 19013KT 04/M06 A30 RMK A01 T00431056  RH  049%=      5-min Rain = 0
KAI1 210431Z 19012KT 04/M06 A30 RMK A01 T00441055  RH  048%=      5-min Rain = 0
KAI1 210432Z 19012KT 04/M06 A30 RMK A01 T00441056  RH  048%=      5-min Rain = 0
KAI1 210433Z 19012KT 04/M06 A30 RMK A01 T00441055  RH  048%=      5-min Rain = 0
KAI1 210434Z 19012KT 04/M06 A30 RMK A01 T00441055  RH  048%=      5-min Rain = 0
KAI1 210435Z 18012KT 05/M06 A30 RMK A01 T00451055  RH  048%=      5-min Rain = 0
KAI1 210436Z 19012KT 05/M06 A30 RMK A01 T00451055  RH  048%=      5-min Rain = 0
KAI1 210437Z 19012KT 05/M06 A30 RMK A01 T00451055  RH  048%=      5-min Rain = 0
KAI1 210438Z 19012KT 04/M06 A30 RMK A01 T00431055  RH  049%=      5-min Rain = 0
KAI1 210439Z 19012KT 04/M06 A30 RMK A01 T00431055  RH  049%=      5-min Rain = 0
KAI1 210440Z 19012KT 04/M06 A30 RMK A01 T00431055  RH  049%=      5-min Rain = 0
KAI1 210441Z 19012KT 04/M05 A30 RMK A01 T00431054  RH  049%=      5-min Rain = 0
KAI1 210442Z 19012KT 04/M05 A30 RMK A01 T00431054  RH  049%=      5-min Rain = 0
KAI1 210443Z 19012KT 04/M05 A30 RMK A01 T00421054  RH  049%=      5-min Rain = 0
KAI1 210444Z 19012KT 04/M05 A30 RMK A01 T00431054  RH  049%=      5-min Rain = 0
KAI1 210445Z 20013KT 04/M05 A30 RMK A01 T00431054  RH  050%=      5-min Rain = 0
KAI1 210446Z 19012KT 04/M05 A30 RMK A01 T00431053  RH  050%=      5-min Rain = 0
KAI1 210447Z 20011KT 04/M05 A30 RMK A01 T00441053  RH  049%=      5-min Rain = 0
KAI1 210448Z 20012KT 04/M05 A30 RMK A01 T00441052  RH  050%=      5-min Rain = 0
KAI1 210449Z 20012KT 04/M05 A30 RMK A01 T00431053  RH  050%=      5-min Rain = 0
KAI1 210450Z 20012KT 04/M05 A30 RMK A01 T00431053  RH  050%=      5-min Rain = 0
KAI1 210451Z 20012KT 04/M05 A30 RMK A01 T00431053  RH  050%=      5-min Rain = 0
KAI1 210452Z 20011KT 04/M05 A30 RMK A01 T00421053  RH  050%=      5-min Rain = 0
KAI1 210453Z 20011KT 04/M05 A3001 RMK A01 T00411053  RH  050%=      5-min Rain = 0
KAI1 210454Z 20011KT 04/M05 A3001 RMK A01 T00401053  RH  051%=      5-min Rain = 0
KAI1 210455Z 20011KT 04/M05 A3001 RMK A01 T00391053  RH  051%=      5-min Rain = 0
KAI1 210456Z 20011KT 04/M05 A3001 RMK A01 T00381053  RH  051%=      5-min Rain = 0
KAI1 210457Z 20011KT 04/M05 A3001 RMK A01 T00371053  RH  052%=      5-min Rain = 0
KAI1 210458Z 19011KT 04/M05 A3001 RMK A01 T00361053  RH  052%=      5-min Rain = 0
KAI1 210459Z 20010KT 04/M05 A3001 RMK A01 T00361053  RH  052%=      5-min Rain = 0
KAI1 210500Z 19011KT 04/M05 A3001 RMK A01 T00361052  RH  053%=      5-min Rain = 0
KAI1 210501Z 19011KT 04/M05 A30 RMK A01 T00361052  RH  053%=      5-min Rain = 0
KAI1 210502Z 19010KT 04/M05 A30 RMK A01 T00361052  RH  053%=      5-min Rain = 0
KAI1 210503Z 19011KT 04/M05 A30 RMK A01 T00361052  RH  053%=      5-min Rain = 0
KAI1 210504Z 19010KT 04/M05 A30 RMK A01 T00351052  RH  053%=      5-min Rain = 0
KAI1 210505Z 19011KT 03/M05 A30 RMK A01 T00341052  RH  053%=      5-min Rain = 0
KAI1 210506Z 19010KT 03/M05 A30 RMK A01 T00331052  RH  054%=      5-min Rain = 0
KAI1 210507Z 18010KT 03/M05 A30 RMK A01 T00331052  RH  054%=      5-min Rain = 0
KAI1 210508Z 19009KT 03/M05 A30 RMK A01 T00321052  RH  054%=      5-min Rain = 0
KAI1 210509Z 19009KT 03/M05 A30 RMK A01 T00311053  RH  054%=      5-min Rain = 0
KAI1 210510Z 19009KT 03/M05 A30 RMK A01 T00301053  RH  054%=      5-min Rain = 0
KAI1 210511Z 19009KT 03/M05 A30 RMK A01 T00291053  RH  055%=      5-min Rain = 0
KAI1 210512Z 19009KT 03/M05 A30 RMK A01 T00281053  RH  055%=      5-min Rain = 0
KAI1 210513Z 19009KT 03/M05 A30 RMK A01 T00271053  RH  056%=      5-min Rain = 0
KAI1 210514Z 19009KT 03/M05 A30 RMK A01 T00271053  RH  056%=      5-min Rain = 0
KAI1 210515Z 19010KT 03/M05 A30 RMK A01 T00271053  RH  056%=      5-min Rain = 0
KAI1 210516Z 19009KT 03/M05 A30 RMK A01 T00261052  RH  056%=      5-min Rain = 0
KAI1 210517Z 20009KT 03/M05 A30 RMK A01 T00271052  RH  056%=      5-min Rain = 0
KAI1 210518Z 20009KT 03/M05 A30 RMK A01 T00261052  RH  056%=      5-min Rain = 0
KAI1 210519Z 20009KT 03/M05 A30 RMK A01 T00261051  RH  057%=      5-min Rain = 0
KAI1 210520Z 20009KT 03/M05 A30 RMK A01 T00261051  RH  057%=      5-min Rain = 0
KAI1 210521Z 20008KT 03/M05 A30 RMK A01 T00261051  RH  057%=      5-min Rain = 0
KAI1 210522Z 20008KT 03/M05 A30 RMK A01 T00251051  RH  057%=      5-min Rain = 0
KAI1 210523Z 20009KT 03/M05 A30 RMK A01 T00251050  RH  057%=      5-min Rain = 0
KAI1 210524Z 20008KT 03/M05 A30 RMK A01 T00251050  RH  057%=      5-min Rain = 0
KAI1 210525Z 20009KT 03/M05 A30 RMK A01 T00251051  RH  057%=      5-min Rain = 0
KAI1 210526Z 20009KT 03/M05 A30 RMK A01 T00251051  RH  058%=      5-min Rain = 0
KAI1 210527Z 20009KT 03/M05 A30 RMK A01 T00251050  RH  058%=      5-min Rain = 0
KAI1 210528Z 20009KT 02/M05 A30 RMK A01 T00241051  RH  058%=      5-min Rain = 0
KAI1 210529Z 20009KT 02/M05 A30 RMK A01 T00241051  RH  058%=      5-min Rain = 0
KAI1 210530Z 20009KT 02/M05 A30 RMK A01 T00231050  RH  058%=      5-min Rain = 0
KAI1 210531Z 20009KT 02/M05 A30 RMK A01 T00231051  RH  058%=      5-min Rain = 0
KAI1 210532Z 20009KT 02/M05 A30 RMK A01 T00221051  RH  058%=      5-min Rain = 0
KAI1 210533Z 20009KT 02/M05 A30 RMK A01 T00221051  RH  058%=      5-min Rain = 0
KAI1 210534Z 20009KT 02/M05 A30 RMK A01 T00231051  RH  058%=      5-min Rain = 0
KAI1 210535Z 20010KT 02/M05 A30 RMK A01 T00231051  RH  058%=      5-min Rain = 0
KAI1 210536Z 20010KT 02/M05 A30 RMK A01 T00231050  RH  058%=      5-min Rain = 0
KAI1 210537Z 20010KT 02/M05 A30 RMK A01 T00231051  RH  058%=      5-min Rain = 0
KAI1 210538Z 20010KT 02/M05 A2999 RMK A01 T00231051  RH  058%=      5-min Rain = 0
KAI1 210539Z 20010KT 02/M05 A2999 RMK A01 T00231051  RH  058%=      5-min Rain = 0
KAI1 210540Z 20010KT 02/M05 A2999 RMK A01 T00231052  RH  058%=      5-min Rain = 0
KAI1 210541Z 20010KT 02/M05 A2999 RMK A01 T00231051  RH  058%=      5-min Rain = 0
KAI1 210542Z 20010KT 02/M05 A2999 RMK A01 T00231051  RH  058%=      5-min Rain = 0
KAI1 210543Z 20009KT 02/M05 A2999 RMK A01 T00231052  RH  058%=      5-min Rain = 0
KAI1 210544Z 20009KT 02/M05 A2999 RMK A01 T00221052  RH  058%=      5-min Rain = 0
KAI1 210545Z 20009KT 02/M05 A2999 RMK A01 T00221052  RH  058%=      5-min Rain = 0
KAI1 210546Z 20009KT 02/M05 A2999 RMK A01 T00211053  RH  058%=      5-min Rain = 0
KAI1 210547Z 20009KT 02/M05 A2999 RMK A01 T00201053  RH  058%=      5-min Rain = 0
KAI1 210548Z 20009KT 02/M05 A30 RMK A01 T00191054  RH  058%=      5-min Rain = 0
KAI1 210549Z 20009KT 02/M05 A30 RMK A01 T00191054  RH  059%=      5-min Rain = 0
KAI1 210550Z 20008KT 02/M05 A30 RMK A01 T00181054  RH  059%=      5-min Rain = 0
KAI1 210551Z 20009KT 02/M05 A30 RMK A01 T00171054  RH  059%=      5-min Rain = 0
KAI1 210552Z 20008KT 02/M06 A30 RMK A01 T00171055  RH  059%=      5-min Rain = 0
KAI1 210553Z 20008KT 02/M06 A30 RMK A01 T00161055  RH  059%=      5-min Rain = 0
KAI1 210554Z 20008KT 02/M06 A30 RMK A01 T00151055  RH  060%=      5-min Rain = 0
KAI1 210555Z 20008KT 02/M06 A30 RMK A01 T00151055  RH  060%=      5-min Rain = 0
KAI1 210556Z 20008KT 02/M06 A30 RMK A01 T00151055  RH  060%=      5-min Rain = 0
KAI1 210557Z 20008KT 01/M06 A2999 RMK A01 T00141055  RH  060%=      5-min Rain = 0
KAI1 210558Z 20008KT 01/M06 A2999 RMK A01 T00141055  RH  060%=      5-min Rain = 0
KAI1 210559Z 20008KT 01/M06 A2999 RMK A01 T00131056  RH  060%=      5-min Rain = 0

Page generated in 0.0777 seconds.